Bel Air, Maryland - USA |
Yesterday's Data File |
5/5/26
Time Wind Dir Wind Spd Wind Gust Hum In Humidity Temp In Temp Raw Barom Wind Chill Press Alt Cloud Base Dens Alt Temp Out R DailyRain 24HrRain RainRate
� mph mph % % �F �F in �F ft ft ft �F/hr in in in/hr
12:00am 174 3 7 38 75 72.4 61.1 29.27 61.1 609 1993 909 -1.24 0.00 0.00 0.000
12:01am 183 2 3 38 75 72.4 61.1 29.27 61.1 609 1993 909 -1.21 0.00 0.00 0.000
12:02am 190 6 6 38 75 72.4 61.1 29.27 60.9 609 1993 909 -1.20 0.00 0.00 0.000
12:03am 189 2 6 38 75 72.4 61.0 29.27 61.0 609 1993 902 -1.28 0.00 0.00 0.000
12:04am 177 4 6 38 75 72.4 61.0 29.27 61.0 610 1993 903 -1.26 0.00 0.00 0.000
12:05am 178 2 6 38 75 72.4 60.9 29.27 60.9 609 1992 896 -1.34 0.00 0.00 0.000
12:06am 178 4 4 38 75 72.4 60.9 29.27 60.9 610 1992 897 -1.31 0.00 0.00 0.000
12:07am 238 3 5 38 75 72.4 60.9 29.27 60.9 610 1992 897 -1.29 0.00 0.00 0.000
12:08am 185 1 5 40 75 72.4 60.8 29.27 60.8 610 1991 890 -1.37 0.00 0.00 0.000
12:09am 195 3 5 38 75 72.4 60.9 29.26 60.9 611 1992 898 -1.25 0.00 0.00 0.000
12:10am 213 3 5 38 75 72.4 60.8 29.26 60.8 611 1991 891 -1.33 0.00 0.00 0.000
12:11am 220 3 3 38 76 72.4 60.8 29.26 60.8 611 1901 891 -1.30 0.00 0.00 0.000
12:12am 220 0 3 38 76 72.4 60.7 29.26 60.7 611 1900 885 -1.38 0.00 0.00 0.000
12:13am 181 3 4 38 76 72.4 60.7 29.26 60.7 611 1900 885 -1.36 0.00 0.00 0.000
12:14am 213 2 5 38 76 72.4 60.6 29.26 60.6 611 1899 878 -1.44 0.00 0.00 0.000
12:15am 219 3 5 38 76 72.4 60.7 29.26 60.7 611 1900 885 -1.31 0.00 0.00 0.000
12:16am 219 0 3 38 76 72.4 60.6 29.27 60.6 610 1899 877 -1.39 0.00 0.00 0.000
12:17am 206 1 7 38 76 72.4 60.6 29.27 60.6 610 1899 877 -1.37 0.00 0.00 0.000
12:18am 170 1 7 38 77 72.4 60.6 29.27 60.6 610 1810 877 -1.34 0.00 0.00 0.000
12:19am 252 4 7 38 77 72.4 60.6 29.27 60.6 610 1810 877 -1.32 0.00 0.00 0.000
12:20am 252 2 7 38 77 72.4 60.5 29.27 60.5 609 1809 869 -1.40 0.00 0.00 0.000
12:21am 189 2 3 38 77 72.4 60.5 29.27 60.5 609 1809 868 -1.38 0.00 0.00 0.000
12:22am 206 0 3 38 77 72.4 60.5 29.27 60.5 608 1809 867 -1.35 0.00 0.00 0.000
12:23am 206 2 3 38 77 72.4 60.5 29.27 60.5 608 1809 867 -1.33 0.00 0.00 0.000
12:24am 206 0 3 38 77 72.4 60.5 29.27 60.5 606 1809 865 -1.31 0.00 0.00 0.000
12:25am 235 0 3 38 77 72.4 60.5 29.27 60.5 607 1809 866 -1.29 0.00 0.00 0.000
12:26am 235 1 1 38 77 72.4 60.5 29.27 60.5 606 1809 865 -1.27 0.00 0.00 0.000
12:27am 235 0 1 38 77 72.4 60.5 29.27 60.5 604 1809 863 -1.25 0.00 0.00 0.000
12:28am 235 1 1 38 77 72.4 60.5 29.27 60.5 603 1809 861 -1.22 0.00 0.00 0.000
12:29am 235 0 1 38 77 72.4 60.4 29.27 60.4 602 1808 854 -1.30 0.00 0.00 0.000
12:30am 235 1 1 38 77 72.4 60.4 29.28 60.4 600 1808 852 -1.28 0.00 0.00 0.000
12:31am 235 0 1 38 77 72.4 60.3 29.28 60.3 600 1808 845 -1.36 0.00 0.00 0.000
12:32am 235 0 1 38 77 72.4 60.3 29.27 60.3 602 1808 847 -1.34 0.00 0.00 0.000
12:33am 183 4 4 38 77 72.4 60.2 29.27 60.2 604 1807 843 -1.41 0.00 0.00 0.000
12:34am 182 2 4 38 78 72.4 60.2 29.27 60.2 604 1719 843 -1.39 0.00 0.00 0.000
12:35am 144 1 4 38 78 72.4 60.2 29.27 60.2 603 1719 842 -1.37 0.00 0.00 0.000
12:36am 144 0 2 38 78 72.4 60.1 29.27 60.1 602 1718 834 -1.45 0.00 0.00 0.000
12:37am 145 2 2 38 78 72.4 60.1 29.27 60.1 603 1718 835 -1.42 0.00 0.00 0.000
12:38am 145 3 3 38 78 72.4 60.1 29.27 60.1 604 1718 837 -1.40 0.00 0.00 0.000
12:39am 161 3 3 38 78 72.6 60.0 29.27 60.0 605 1718 831 -1.47 0.00 0.00 0.000
12:40am 161 2 3 38 78 72.6 60.0 29.27 60.0 604 1718 830 -1.45 0.00 0.00 0.000
12:41am 183 1 3 38 79 72.6 60.0 29.27 60.0 604 1631 830 -1.43 0.00 0.00 0.000
12:42am 239 3 3 38 79 72.6 60.0 29.27 60.0 604 1631 830 -1.40 0.00 0.00 0.000
12:43am 237 1 3 38 79 72.6 60.0 29.27 60.0 602 1631 828 -1.37 0.00 0.00 0.000
12:44am 237 2 3 38 79 72.6 60.0 29.27 60.0 604 1631 830 -1.35 0.00 0.00 0.000
12:45am 171 1 4 38 79 72.6 60.0 29.27 60.0 603 1631 829 -1.33 0.00 0.00 0.000
12:46am 171 1 2 38 79 72.6 60.0 29.27 60.0 602 1631 828 -1.31 0.00 0.00 0.000
12:47am 171 1 2 38 79 72.6 60.0 29.27 60.0 602 1631 828 -1.29 0.00 0.00 0.000
12:48am 193 3 3 38 79 72.6 60.0 29.27 60.0 602 1631 828 -1.27 0.00 0.00 0.000
12:49am 193 1 3 38 79 72.6 60.0 29.27 60.0 603 1631 829 -1.25 0.00 0.00 0.000
12:50am 208 2 7 38 79 72.6 60.0 29.27 60.0 604 1631 830 -1.23 0.00 0.00 0.000
12:51am 208 1 2 38 79 72.6 60.0 29.27 60.0 602 1631 828 -1.21 0.00 0.00 0.000
12:52am 208 2 3 38 79 72.6 60.0 29.27 60.0 602 1631 828 -1.19 0.00 0.00 0.000
12:53am 208 0 3 38 79 72.6 60.0 29.27 60.0 602 1631 828 -1.17 0.00 0.00 0.000
12:54am 208 2 3 38 79 72.6 60.0 29.27 60.0 603 1631 829 -1.15 0.00 0.00 0.000
12:55am 208 1 3 38 79 72.6 59.9 29.27 59.9 603 1630 822 -1.23 0.00 0.00 0.000
12:56am 208 1 3 38 79 72.6 59.9 29.27 59.9 602 1630 821 -1.21 0.00 0.00 0.000
12:57am 208 0 3 38 79 72.6 59.8 29.28 59.8 600 1629 812 -1.29 0.00 0.00 0.000
12:58am 208 1 3 38 80 72.6 59.8 29.28 59.8 600 1543 812 -1.27 0.00 0.00 0.000
12:59am 208 0 3 38 80 72.6 59.8 29.28 59.8 599 1543 811 -1.25 0.00 0.00 0.000
1:00am 208 1 3 38 80 72.6 59.8 29.28 59.8 599 1543 811 -1.22 0.00 0.00 0.000
1:01am 208 0 3 38 80 72.6 59.8 29.28 59.8 599 1543 811 -1.21 0.00 0.00 0.000
1:02am 222 2 3 38 80 72.6 59.8 29.28 59.8 599 1543 811 -1.19 0.00 0.00 0.000
1:03am 225 1 3 38 80 72.6 59.8 29.28 59.8 599 1543 811 -1.17 0.00 0.00 0.000
1:04am 225 2 3 38 80 72.6 59.7 29.28 59.7 600 1543 806 -1.24 0.00 0.00 0.000
1:05am 225 1 3 38 80 72.6 59.7 29.28 59.7 601 1543 807 -1.23 0.00 0.00 0.000
1:06am 225 1 2 38 80 72.6 59.7 29.28 59.7 600 1543 806 -1.21 0.00 0.00 0.000
1:07am 225 0 2 38 80 72.6 59.7 29.28 59.7 599 1543 805 -1.18 0.00 0.00 0.000
1:08am 225 1 2 38 80 72.6 59.7 29.28 59.7 599 1543 805 -1.17 0.00 0.00 0.000
1:09am 225 0 2 38 80 72.6 59.6 29.28 59.6 599 1542 798 -1.25 0.00 0.00 0.000
1:10am 225 1 2 39 80 72.8 59.6 29.28 59.6 598 1542 797 -1.23 0.00 0.00 0.000
1:11am 225 1 1 38 80 72.8 59.6 29.28 59.6 598 1542 797 -1.20 0.00 0.00 0.000
1:12am 225 1 2 38 81 72.8 59.6 29.28 59.6 597 1457 796 -1.19 0.00 0.00 0.000
1:13am 225 2 2 38 81 72.8 59.6 29.28 59.6 597 1457 796 -1.17 0.00 0.00 0.000
1:14am 225 2 2 38 81 72.8 59.5 29.28 59.5 597 1457 789 -1.25 0.00 0.00 0.000
1:15am 225 2 2 38 81 72.8 59.5 29.28 59.5 597 1457 789 -1.23 0.00 0.00 0.000
1:16am 225 1 2 38 81 72.8 59.5 29.28 59.5 599 1457 792 -1.21 0.00 0.00 0.000
1:17am 225 1 2 39 81 72.8 59.5 29.28 59.5 599 1457 792 -1.19 0.00 0.00 0.000
1:18am 225 1 2 38 81 72.8 59.5 29.28 59.5 600 1457 793 -1.17 0.00 0.00 0.000
1:19am 225 1 2 39 81 72.8 59.5 29.28 59.5 599 1457 792 -1.15 0.00 0.00 0.000
1:20am 225 1 2 38 81 72.8 59.4 29.28 59.4 600 1456 786 -1.23 0.00 0.00 0.000
1:21am 225 2 2 39 81 72.8 59.4 29.28 59.4 599 1456 785 -1.21 0.00 0.00 0.000
1:22am 225 0 2 38 81 72.8 59.4 29.28 59.4 599 1456 785 -1.19 0.00 0.00 0.000
1:23am 225 3 3 38 81 72.8 59.3 29.28 59.3 599 1455 778 -1.27 0.00 0.00 0.000
1:24am 225 1 3 38 81 72.8 59.3 29.28 59.3 599 1455 778 -1.25 0.00 0.00 0.000
1:25am 225 2 3 38 81 72.8 59.4 29.28 59.4 599 1456 785 -1.13 0.00 0.00 0.000
1:26am 225 1 2 38 81 72.8 59.4 29.28 59.4 599 1456 785 -1.11 0.00 0.00 0.000
1:27am 225 1 2 39 81 72.8 59.4 29.28 59.4 599 1456 785 -1.09 0.00 0.00 0.000
1:28am 224 2 4 38 81 72.8 59.4 29.28 59.4 600 1456 786 -1.07 0.00 0.00 0.000
1:29am 224 2 4 38 81 72.8 59.3 29.28 59.3 599 1455 778 -1.15 0.00 0.00 0.000
1:30am 224 2 4 38 81 72.8 59.4 29.28 59.4 599 1456 785 -1.04 0.00 0.00 0.000
1:31am 224 1 3 39 81 72.8 59.4 29.28 59.4 599 1456 785 -1.02 0.00 0.00 0.000
1:32am 224 1 3 38 81 72.8 59.3 29.28 59.3 599 1455 778 -1.10 0.00 0.00 0.000
1:33am 224 1 3 39 81 72.8 59.3 29.28 59.3 600 1455 780 -1.08 0.00 0.00 0.000
1:34am 224 1 3 39 81 72.8 59.4 29.28 59.4 600 1456 786 -0.97 0.00 0.00 0.000
1:35am 224 2 3 39 81 72.8 59.3 29.28 59.3 601 1455 781 -1.05 0.00 0.00 0.000
1:36am 242 2 4 38 81 73.0 59.3 29.28 59.3 601 1455 781 -1.03 0.00 0.00 0.000
1:37am 244 1 4 39 81 73.0 59.3 29.28 59.3 601 1455 781 -1.01 0.00 0.00 0.000
1:38am 237 2 4 38 81 73.0 59.4 29.28 59.4 601 1456 787 -0.90 0.00 0.00 0.000
1:39am 213 2 4 39 81 73.0 59.3 29.28 59.3 601 1455 781 -0.98 0.00 0.00 0.000
1:40am 213 2 4 38 81 73.0 59.3 29.28 59.3 600 1455 780 -0.97 0.00 0.00 0.000
1:41am 212 1 3 39 81 73.0 59.3 29.28 59.3 601 1455 781 -0.95 0.00 0.00 0.000
1:42am 213 1 3 39 81 73.0 59.4 29.28 59.4 601 1456 787 -0.84 0.00 0.00 0.000
1:43am 213 2 3 39 81 73.0 59.4 29.28 59.4 601 1456 787 -0.82 0.00 0.00 0.000
1:44am 213 2 3 39 81 73.0 59.4 29.28 59.4 600 1456 786 -0.81 0.00 0.00 0.000
1:45am 213 0 3 39 81 73.0 59.4 29.28 59.4 599 1456 785 -0.79 0.00 0.00 0.000
1:46am 213 2 2 39 81 73.0 59.4 29.28 59.4 600 1456 786 -0.78 0.00 0.00 0.000
1:47am 213 0 2 38 81 73.0 59.3 29.27 59.3 602 1455 782 -0.87 0.00 0.00 0.000
1:48am 213 0 2 39 81 73.0 59.3 29.28 59.3 599 1455 778 -0.85 0.00 0.00 0.000
1:49am 213 0 2 39 81 73.0 59.3 29.28 59.3 601 1455 781 -0.84 0.00 0.00 0.000
1:50am 213 0 2 38 81 73.0 59.3 29.27 59.3 602 1455 782 -0.82 0.00 0.00 0.000
1:51am 213 0 0 38 81 73.0 59.3 29.27 59.3 604 1455 784 -0.81 0.00 0.00 0.000
1:52am 213 0 0 38 81 73.0 59.3 29.28 59.3 600 1455 780 -0.80 0.00 0.00 0.000
1:53am 213 0 0 39 81 73.0 59.3 29.28 59.3 600 1455 780 -0.78 0.00 0.00 0.000
1:54am 213 0 0 39 81 73.0 59.3 29.27 59.3 602 1455 782 -0.77 0.00 0.00 0.000
1:55am 213 0 0 39 81 73.0 59.3 29.27 59.3 604 1455 784 -0.76 0.00 0.00 0.000
1:56am 213 0 0 38 81 73.0 59.2 29.27 59.2 606 1455 780 -0.84 0.00 0.00 0.000
1:57am 213 0 0 38 81 73.0 59.2 29.27 59.2 606 1455 780 -0.83 0.00 0.00 0.000
1:58am 213 0 0 38 81 73.0 59.2 29.27 59.2 608 1455 782 -0.82 0.00 0.00 0.000
1:59am 213 0 0 39 81 73.0 59.2 29.27 59.2 609 1455 783 -0.80 0.00 0.00 0.000
2:00am 213 0 0 39 81 73.0 59.2 29.27 59.2 609 1455 783 -0.79 0.00 0.00 0.000
2:01am 213 0 0 40 81 73.1 59.2 29.27 59.2 609 1455 784 -0.77 0.00 0.00 0.000
2:02am 213 0 0 39 81 73.0 59.2 29.27 59.2 609 1455 784 -0.76 0.00 0.00 0.000
2:03am 213 0 0 39 81 73.0 59.2 29.27 59.2 609 1455 784 -0.75 0.00 0.00 0.000
2:04am 213 0 0 39 81 73.1 59.2 29.27 59.2 608 1455 782 -0.73 0.00 0.00 0.000
2:05am 213 0 0 39 81 73.1 59.1 29.27 59.1 608 1454 776 -0.82 0.00 0.00 0.000
2:06am 213 0 0 38 81 73.1 59.1 29.27 59.1 608 1454 776 -0.81 0.00 0.00 0.000
2:07am 213 0 0 38 81 73.1 59.2 29.27 59.2 609 1455 783 -0.69 0.00 0.00 0.000
2:08am 213 0 0 38 81 73.1 59.1 29.27 59.1 608 1454 776 -0.78 0.00 0.00 0.000
2:09am 213 0 0 39 81 73.1 59.1 29.27 59.1 608 1454 776 -0.77 0.00 0.00 0.000
2:10am 213 0 0 39 81 73.1 59.1 29.27 59.1 608 1454 776 -0.76 0.00 0.00 0.000
2:11am 213 0 0 38 81 73.1 59.1 29.27 59.1 607 1454 775 -0.74 0.00 0.00 0.000
2:12am 213 0 0 39 82 73.1 59.1 29.27 59.1 607 1370 775 -0.73 0.00 0.00 0.000
2:13am 213 0 0 39 82 73.1 59.1 29.27 59.1 607 1370 775 -0.72 0.00 0.00 0.000
2:14am 213 0 0 39 82 73.1 59.0 29.27 59.0 603 1370 763 -0.80 0.00 0.00 0.000
2:15am 213 0 0 39 82 73.1 58.9 29.28 58.9 599 1369 752 -0.89 0.00 0.00 0.000
2:16am 211 1 1 39 82 73.1 58.9 29.28 58.9 600 1369 753 -0.87 0.00 0.00 0.000
2:17am 211 2 2 38 82 73.1 58.8 29.28 58.8 600 1369 747 -0.96 0.00 0.00 0.000
2:18am 211 0 3 39 82 73.1 58.7 29.28 58.7 601 1368 741 -1.04 0.00 0.00 0.000
2:19am 211 2 3 39 82 73.1 58.7 29.28 58.7 601 1368 741 -1.02 0.00 0.00 0.000
2:20am 212 1 3 39 82 73.1 58.7 29.28 58.7 601 1368 741 -1.01 0.00 0.00 0.000
2:21am 212 2 3 38 82 73.1 58.6 29.27 58.6 603 1368 737 -1.09 0.00 0.00 0.000
2:22am 200 2 4 39 82 73.1 58.6 29.27 58.6 604 1368 738 -1.07 0.00 0.00 0.000
2:23am 200 3 4 39 82 73.1 58.6 29.27 58.6 603 1368 737 -1.05 0.00 0.00 0.000
2:24am 209 3 4 39 82 73.1 58.7 29.27 58.7 605 1368 746 -0.94 0.00 0.00 0.000
2:25am 208 2 4 39 82 73.1 58.6 29.27 58.6 606 1368 741 -1.02 0.00 0.00 0.000
2:26am 189 1 4 38 81 73.1 58.7 29.27 58.7 607 1452 748 -0.90 0.00 0.00 0.000
2:27am 189 1 4 39 81 73.1 58.7 29.27 58.7 608 1452 749 -0.89 0.00 0.00 0.000
2:28am 189 3 4 39 81 73.1 58.7 29.27 58.7 608 1452 749 -0.87 0.00 0.00 0.000
2:29am 191 3 4 39 81 73.1 58.8 29.27 58.8 609 1452 757 -0.76 0.00 0.00 0.000
2:30am 191 2 4 39 81 73.1 58.7 29.27 58.7 609 1452 751 -0.85 0.00 0.00 0.000
2:31am 202 2 4 39 81 73.1 58.8 29.27 58.8 609 1452 757 -0.73 0.00 0.00 0.000
2:32am 195 1 4 39 80 73.1 58.9 29.27 58.9 610 1537 766 -0.62 0.00 0.00 0.000
2:33am 195 0 4 39 80 73.3 58.9 29.26 58.9 611 1537 767 -0.61 0.00 0.00 0.000
2:34am 195 0 4 39 80 73.3 58.9 29.27 58.9 610 1537 766 -0.60 0.00 0.00 0.000
2:35am 197 1 4 39 80 73.3 58.9 29.27 58.9 610 1537 766 -0.59 0.00 0.00 0.000
2:36am 197 0 1 39 80 73.3 58.9 29.26 58.9 611 1537 767 -0.58 0.00 0.00 0.000
2:37am 197 2 2 39 80 73.3 59.0 29.26 59.0 611 1538 774 -0.47 0.00 0.00 0.000
2:38am 197 0 2 39 80 73.3 59.0 29.26 59.0 611 1538 774 -0.46 0.00 0.00 0.000
2:39am 197 1 2 39 80 73.3 58.9 29.26 58.9 611 1537 767 -0.56 0.00 0.00 0.000
2:40am 197 0 2 38 80 73.3 59.0 29.26 59.0 611 1538 774 -0.45 0.00 0.00 0.000
2:41am 197 2 2 39 80 73.3 58.9 29.26 58.9 611 1537 767 -0.54 0.00 0.00 0.000
2:42am 175 2 4 39 80 73.3 58.9 29.26 58.9 611 1537 767 -0.53 0.00 0.00 0.000
2:43am 175 3 4 39 80 73.3 59.0 29.26 59.0 611 1538 774 -0.42 0.00 0.00 0.000
2:44am 175 1 4 39 80 73.3 58.9 29.27 58.9 610 1537 766 -0.52 0.00 0.00 0.000
2:45am 232 1 4 38 80 73.3 59.0 29.26 59.0 611 1538 774 -0.41 0.00 0.00 0.000
2:46am 187 5 5 39 80 73.3 58.9 29.27 58.7 610 1537 766 -0.50 0.00 0.00 0.000
2:47am 187 3 5 39 80 73.3 59.1 29.27 59.1 609 1539 777 -0.29 0.00 0.00 0.000
2:48am 196 3 5 39 80 73.3 59.0 29.27 59.0 610 1538 773 -0.39 0.00 0.00 0.000
2:49am 170 2 5 39 80 73.3 59.0 29.27 59.0 608 1538 769 -0.38 0.00 0.00 0.000
2:50am 171 1 5 39 80 73.3 59.0 29.27 59.0 607 1538 768 -0.38 0.00 0.00 0.000
2:51am 167 3 6 39 81 73.3 59.1 29.27 59.1 608 1454 776 -0.27 0.00 0.00 0.000
2:52am 167 1 6 39 81 73.3 59.0 29.27 59.0 607 1454 768 -0.37 0.00 0.00 0.000
2:53am 172 4 6 39 81 73.3 59.0 29.27 59.0 608 1454 769 -0.36 0.00 0.00 0.000
2:54am 156 0 6 39 81 73.3 59.1 29.27 59.1 608 1454 776 -0.26 0.00 0.00 0.000
2:55am 212 2 6 39 81 73.3 59.1 29.27 59.1 609 1454 777 -0.25 0.00 0.00 0.000
2:56am 274 4 7 38 81 73.3 59.1 29.27 59.1 610 1454 779 -0.25 0.00 0.00 0.000
2:57am 269 0 7 39 81 73.3 59.1 29.27 59.1 609 1454 777 -0.24 0.00 0.00 0.000
2:58am 269 1 7 39 81 73.3 59.1 29.27 59.1 609 1454 777 -0.24 0.00 0.00 0.000
2:59am 264 0 7 39 81 73.3 59.1 29.27 59.1 609 1454 777 -0.24 0.00 0.00 0.000
3:00am 263 2 7 39 81 73.3 59.1 29.27 59.1 608 1454 776 -0.23 0.00 0.00 0.000
3:01am 202 3 3 39 81 73.5 59.1 29.27 59.1 609 1454 777 -0.23 0.00 0.00 0.000
3:02am 202 2 3 39 82 73.3 59.1 29.27 59.1 608 1370 776 -0.22 0.00 0.00 0.000
3:03am 202 1 3 39 82 73.5 59.0 29.27 59.0 608 1370 769 -0.32 0.00 0.00 0.000
3:04am 206 2 3 39 82 73.5 58.9 29.27 58.9 606 1369 760 -0.41 0.00 0.00 0.000
3:05am 195 1 4 39 82 73.5 58.9 29.27 58.9 607 1369 761 -0.41 0.00 0.00 0.000
3:06am 195 0 1 39 82 73.5 58.9 29.27 58.9 607 1369 761 -0.40 0.00 0.00 0.000
3:07am 236 1 3 39 82 73.5 58.9 29.27 58.9 608 1369 763 -0.39 0.00 0.00 0.000
3:08am 236 0 3 39 82 73.5 58.9 29.27 58.9 609 1369 764 -0.39 0.00 0.00 0.000
3:09am 236 2 4 39 82 73.5 58.9 29.27 58.9 608 1369 763 -0.38 0.00 0.00 0.000
3:10am 236 1 4 39 82 73.5 58.8 29.27 58.8 608 1369 756 -0.47 0.00 0.00 0.000
3:11am 236 0 2 39 82 73.5 58.8 29.27 58.8 607 1369 755 -0.46 0.00 0.00 0.000
3:12am 168 3 3 39 82 73.5 58.8 29.27 58.8 608 1369 756 -0.46 0.00 0.00 0.000
3:13am 163 3 4 39 83 73.5 58.8 29.27 58.8 607 1286 755 -0.45 0.00 0.00 0.000
3:14am 226 3 5 39 83 73.5 58.8 29.27 58.8 608 1286 756 -0.44 0.00 0.00 0.000
3:15am 219 2 5 39 83 73.5 58.7 29.27 58.7 607 1285 748 -0.53 0.00 0.00 0.000
3:16am 219 0 3 39 83 73.5 58.6 29.27 58.6 605 1285 739 -0.62 0.00 0.00 0.000
3:17am 219 2 3 39 83 73.5 58.6 29.27 58.6 606 1285 741 -0.61 0.00 0.00 0.000
3:18am 219 1 3 39 83 73.5 58.6 29.27 58.6 606 1285 741 -0.60 0.00 0.00 0.000
3:19am 219 2 3 39 83 73.5 58.5 29.27 58.5 604 1284 732 -0.69 0.00 0.00 0.000
3:20am 219 1 3 39 83 73.5 58.5 29.27 58.5 606 1284 734 -0.68 0.00 0.00 0.000
3:21am 219 1 2 39 83 73.5 58.4 29.27 58.4 606 1284 727 -0.77 0.00 0.00 0.000
3:22am 219 2 3 39 83 73.5 58.4 29.27 58.4 607 1284 729 -0.75 0.00 0.00 0.000
3:23am 218 2 3 39 84 73.5 58.3 29.27 58.3 606 1202 721 -0.84 0.00 0.00 0.000
3:24am 218 1 3 39 84 73.5 58.3 29.27 58.3 604 1202 719 -0.82 0.00 0.00 0.000
3:25am 203 1 6 39 84 73.5 58.3 29.27 58.3 605 1202 720 -0.81 0.00 0.00 0.000
3:26am 203 1 2 39 84 73.5 58.3 29.27 58.3 604 1202 719 -0.80 0.00 0.00 0.000
3:27am 173 0 3 39 84 73.5 58.3 29.27 58.3 603 1202 718 -0.78 0.00 0.00 0.000
3:28am 173 1 3 39 84 73.5 58.3 29.27 58.3 602 1202 716 -0.77 0.00 0.00 0.000
3:29am 173 2 3 39 84 73.5 58.2 29.27 58.2 603 1201 711 -0.86 0.00 0.00 0.000
3:30am 173 1 3 39 84 73.5 58.2 29.27 58.2 602 1201 710 -0.84 0.00 0.00 0.000
3:31am 173 2 2 39 84 73.5 58.1 29.27 58.1 603 1201 704 -0.93 0.00 0.00 0.000
3:32am 191 3 3 39 84 73.5 58.1 29.27 58.1 604 1201 706 -0.91 0.00 0.00 0.000
3:33am 191 2 3 39 84 73.5 58.1 29.27 58.1 603 1201 704 -0.90 0.00 0.00 0.000
3:34am 191 1 3 39 84 73.5 58.1 29.28 58.1 601 1201 702 -0.88 0.00 0.00 0.000
3:35am 191 1 3 39 84 73.5 58.0 29.28 58.0 601 1200 696 -0.97 0.00 0.00 0.000
3:36am 191 2 2 39 84 73.5 58.0 29.28 58.0 601 1200 696 -0.95 0.00 0.00 0.000
3:37am 191 0 2 39 84 73.5 58.0 29.28 58.0 601 1200 696 -0.94 0.00 0.00 0.000
3:38am 191 0 2 39 85 73.6 57.9 29.28 57.9 601 1119 689 -1.02 0.00 0.00 0.000
3:39am 191 1 2 39 85 73.6 57.9 29.28 57.9 601 1119 689 -1.00 0.00 0.00 0.000
3:40am 191 0 2 39 85 73.6 57.8 29.28 57.8 600 1118 681 -1.09 0.00 0.00 0.000
3:41am 191 0 1 39 85 73.6 57.8 29.28 57.8 599 1118 680 -1.07 0.00 0.00 0.000
3:42am 191 1 1 39 85 73.6 57.8 29.28 57.8 600 1118 681 -1.05 0.00 0.00 0.000
3:43am 191 1 2 39 85 73.6 57.8 29.28 57.8 599 1118 680 -1.03 0.00 0.00 0.000
3:44am 191 1 2 39 85 73.6 57.8 29.28 57.8 599 1118 680 -1.02 0.00 0.00 0.000
3:45am 191 1 2 39 85 73.6 57.7 29.28 57.7 599 1118 674 -1.10 0.00 0.00 0.000
3:46am 191 2 2 39 85 73.6 57.7 29.28 57.7 598 1118 672 -1.08 0.00 0.00 0.000
3:47am 191 1 2 39 85 73.6 57.6 29.28 57.6 599 1117 667 -1.16 0.00 0.00 0.000
3:48am 191 1 3 39 85 73.6 57.6 29.28 57.6 598 1117 666 -1.14 0.00 0.00 0.000
3:49am 191 0 3 39 85 73.6 57.6 29.28 57.6 598 1117 666 -1.12 0.00 0.00 0.000
3:50am 191 1 3 39 85 73.6 57.6 29.28 57.6 598 1117 666 -1.10 0.00 0.00 0.000
3:51am 191 1 1 39 85 73.6 57.5 29.28 57.5 598 1117 659 -1.19 0.00 0.00 0.000
3:52am 191 1 2 39 85 73.6 57.5 29.28 57.5 598 1117 659 -1.17 0.00 0.00 0.000
3:53am 191 1 2 39 85 73.6 57.5 29.28 57.5 598 1117 659 -1.15 0.00 0.00 0.000
3:54am 191 0 2 39 85 73.6 57.4 29.28 57.4 599 1116 654 -1.23 0.00 0.00 0.000
3:55am 191 0 2 39 85 73.6 57.4 29.28 57.4 601 1116 656 -1.21 0.00 0.00 0.000
3:56am 191 0 2 39 85 73.6 57.4 29.28 57.4 601 1116 656 -1.19 0.00 0.00 0.000
3:57am 191 2 3 39 85 73.6 57.3 29.28 57.3 601 1116 650 -1.27 0.00 0.00 0.000
3:58am 191 1 3 39 86 73.6 57.3 29.28 57.3 599 1036 647 -1.25 0.00 0.00 0.000
3:59am 191 1 3 39 86 73.6 57.2 29.28 57.2 600 1036 642 -1.33 0.00 0.00 0.000
4:00am 189 1 4 39 86 73.6 57.2 29.28 57.2 600 1036 642 -1.31 0.00 0.00 0.000
4:01am 189 0 2 39 86 73.6 57.2 29.28 57.2 599 1036 641 -1.28 0.00 0.00 0.000
4:02am 189 0 2 39 86 73.6 57.2 29.28 57.2 600 1036 642 -1.26 0.00 0.00 0.000
4:03am 189 2 2 39 86 73.6 57.2 29.28 57.2 599 1036 641 -1.24 0.00 0.00 0.000
4:04am 189 0 2 39 86 73.6 57.2 29.28 57.2 599 1036 641 -1.22 0.00 0.00 0.000
4:05am 189 3 3 39 86 73.6 57.1 29.28 57.1 599 1035 634 -1.30 0.00 0.00 0.000
4:06am 189 1 4 39 86 73.6 57.1 29.28 57.1 598 1035 633 -1.28 0.00 0.00 0.000
4:07am 161 4 5 39 86 73.6 57.1 29.28 57.1 598 1035 633 -1.26 0.00 0.00 0.000
4:08am 202 3 5 39 86 73.6 57.1 29.28 57.1 598 1035 633 -1.24 0.00 0.00 0.000
4:09am 202 3 5 39 86 73.6 57.1 29.28 57.1 598 1035 633 -1.22 0.00 0.00 0.000
4:10am 202 3 5 39 86 73.6 57.1 29.28 57.1 599 1035 634 -1.20 0.00 0.00 0.000
4:11am 206 2 3 39 86 73.6 57.2 29.28 57.2 599 1036 641 -1.08 0.00 0.00 0.000
4:12am 206 2 3 39 86 73.6 57.2 29.28 57.2 599 1036 641 -1.06 0.00 0.00 0.000
4:13am 206 1 3 39 86 73.6 57.2 29.28 57.2 599 1036 641 -1.04 0.00 0.00 0.000
4:14am 168 2 3 39 86 73.6 57.2 29.28 57.2 599 1036 641 -1.02 0.00 0.00 0.000
4:15am 168 1 3 39 86 73.6 57.2 29.28 57.2 599 1036 641 -1.01 0.00 0.00 0.000
4:16am 168 1 2 39 86 73.6 57.2 29.28 57.2 599 1036 641 -0.99 0.00 0.00 0.000
4:17am 168 3 3 39 86 73.6 57.1 29.28 57.1 600 1035 635 -1.07 0.00 0.00 0.000
4:18am 179 2 6 39 86 73.6 57.1 29.28 57.1 601 1035 636 -1.05 0.00 0.00 0.000
4:19am 179 3 6 39 86 73.6 57.1 29.28 57.1 601 1035 636 -1.04 0.00 0.00 0.000
4:20am 179 2 6 39 86 73.6 57.1 29.28 57.1 601 1035 636 -1.02 0.00 0.00 0.000
4:21am 168 4 5 39 86 73.6 57.1 29.28 57.1 601 1035 636 -1.00 0.00 0.00 0.000
4:22am 168 2 5 39 86 73.8 57.1 29.28 57.1 601 1035 636 -0.99 0.00 0.00 0.000
4:23am 204 3 5 39 86 73.6 57.1 29.28 57.1 601 1035 636 -0.97 0.00 0.00 0.000
4:24am 200 0 5 39 86 73.8 57.1 29.28 57.1 601 1035 636 -0.95 0.00 0.00 0.000
4:25am 200 1 5 39 86 73.8 57.1 29.28 57.1 601 1035 636 -0.94 0.00 0.00 0.000
4:26am 200 0 1 39 86 73.8 57.1 29.27 57.1 602 1035 637 -0.92 0.00 0.00 0.000
4:27am 200 1 3 39 86 73.8 57.1 29.27 57.1 602 1035 637 -0.91 0.00 0.00 0.000
4:28am 200 0 3 39 86 73.8 57.1 29.27 57.1 602 1035 637 -0.89 0.00 0.00 0.000
4:29am 226 1 3 39 86 73.8 57.1 29.27 57.1 602 1035 637 -0.88 0.00 0.00 0.000
4:30am 226 0 3 39 86 73.8 57.1 29.27 57.1 604 1035 640 -0.86 0.00 0.00 0.000
4:31am 226 0 0 39 86 73.8 57.1 29.27 57.1 603 1035 639 -0.85 0.00 0.00 0.000
4:32am 226 0 0 39 86 73.8 57.0 29.27 57.0 603 1035 632 -0.93 0.00 0.00 0.000
4:33am 226 0 0 39 86 73.8 57.0 29.27 57.0 603 1035 632 -0.92 0.00 0.00 0.000
4:34am 241 2 3 39 86 73.8 56.9 29.27 56.9 603 1034 625 -1.00 0.00 0.00 0.000
4:35am 241 1 3 39 86 73.8 56.9 29.27 56.9 603 1034 625 -0.99 0.00 0.00 0.000
4:36am 241 2 2 39 86 73.8 56.8 29.27 56.8 604 1034 620 -1.07 0.00 0.00 0.000
4:37am 241 2 2 39 86 73.8 56.8 29.27 56.8 605 1034 621 -1.05 0.00 0.00 0.000
4:38am 241 1 2 39 86 73.8 56.8 29.27 56.8 603 1034 619 -1.03 0.00 0.00 0.000
4:39am 241 1 2 39 86 73.8 56.7 29.27 56.7 604 1034 613 -1.11 0.00 0.00 0.000
4:40am 241 1 2 39 86 73.8 56.7 29.27 56.7 604 1034 613 -1.10 0.00 0.00 0.000
4:41am 241 1 2 39 86 73.8 56.6 29.27 56.6 604 1033 607 -1.18 0.00 0.00 0.000
4:42am 241 3 3 39 86 73.8 56.6 29.27 56.6 605 1033 608 -1.16 0.00 0.00 0.000
4:43am 241 2 3 39 86 73.8 56.5 29.27 56.5 606 1033 603 -1.24 0.00 0.00 0.000
4:44am 241 2 3 39 86 73.8 56.5 29.27 56.5 606 1033 603 -1.22 0.00 0.00 0.000
4:45am 241 2 3 39 87 73.8 56.4 29.27 56.4 606 954 596 -1.30 0.00 0.00 0.000
4:46am 241 2 3 39 87 73.8 56.3 29.27 56.3 607 953 591 -1.37 0.00 0.00 0.000
4:47am 241 1 3 39 87 73.8 56.3 29.27 56.3 605 953 588 -1.35 0.00 0.00 0.000
4:48am 241 2 3 39 87 73.8 56.3 29.27 56.3 606 953 589 -1.33 0.00 0.00 0.000
4:49am 241 1 3 39 87 73.8 56.2 29.27 56.2 605 953 582 -1.40 0.00 0.00 0.000
4:50am 241 1 3 39 87 73.8 56.2 29.27 56.2 605 953 582 -1.38 0.00 0.00 0.000
4:51am 243 1 2 39 87 73.8 56.2 29.27 56.2 605 953 582 -1.36 0.00 0.00 0.000
4:52am 243 0 2 39 87 73.8 56.1 29.27 56.1 605 953 575 -1.43 0.00 0.00 0.000
4:53am 243 1 2 39 87 73.8 56.0 29.27 56.0 604 952 567 -1.51 0.00 0.00 0.000
4:54am 243 0 2 39 87 73.8 56.0 29.27 56.0 604 952 567 -1.48 0.00 0.00 0.000
4:55am 243 1 2 39 87 73.8 55.9 29.27 55.9 604 952 561 -1.56 0.00 0.00 0.000
4:56am 243 0 2 39 87 73.8 55.9 29.27 55.9 605 952 562 -1.54 0.00 0.00 0.000
4:57am 243 2 2 39 87 73.8 55.9 29.27 55.9 606 952 563 -1.51 0.00 0.00 0.000
4:58am 243 2 2 39 87 73.8 55.8 29.27 55.8 607 951 558 -1.59 0.00 0.00 0.000
4:59am 243 2 3 39 88 73.8 55.8 29.27 55.8 607 874 558 -1.56 0.00 0.00 0.000
5:00am 243 2 3 39 88 73.8 55.8 29.27 55.8 607 874 558 -1.53 0.00 0.00 0.000
5:01am 243 2 2 39 88 73.8 55.7 29.27 55.7 606 873 550 -1.61 0.00 0.00 0.000
5:02am 243 2 3 39 88 73.8 55.8 29.27 55.8 607 874 558 -1.48 0.00 0.00 0.000
5:03am 243 2 3 39 88 73.8 55.7 29.27 55.7 608 873 552 -1.56 0.00 0.00 0.000
5:04am 241 2 3 39 88 73.8 55.7 29.27 55.7 607 873 551 -1.53 0.00 0.00 0.000
5:05am 241 2 3 39 88 73.8 55.7 29.27 55.7 607 873 551 -1.51 0.00 0.00 0.000
5:06am 241 2 3 39 88 73.8 55.7 29.27 55.7 606 873 550 -1.48 0.00 0.00 0.000
5:07am 241 2 3 39 88 73.8 55.7 29.27 55.7 605 873 549 -1.46 0.00 0.00 0.000
5:08am 241 3 3 39 88 73.8 55.7 29.27 55.7 604 873 547 -1.43 0.00 0.00 0.000
5:09am 241 2 3 39 88 73.8 55.7 29.27 55.7 604 873 547 -1.41 0.00 0.00 0.000
5:10am 241 2 3 39 88 74.0 55.6 29.27 55.6 603 873 540 -1.49 0.00 0.00 0.000
5:11am 241 2 3 39 88 74.0 55.6 29.27 55.6 603 873 540 -1.46 0.00 0.00 0.000
5:12am 241 2 3 39 88 74.0 55.6 29.27 55.6 603 873 540 -1.44 0.00 0.00 0.000
5:13am 241 1 3 39 88 74.0 55.6 29.27 55.6 603 873 540 -1.42 0.00 0.00 0.000
5:14am 241 2 3 39 88 74.0 55.6 29.27 55.6 604 873 541 -1.39 0.00 0.00 0.000
5:15am 241 3 3 39 88 74.0 55.6 29.27 55.6 604 873 541 -1.37 0.00 0.00 0.000
5:16am 241 3 3 39 87 74.0 55.5 29.27 55.5 603 950 533 -1.44 0.00 0.00 0.000
5:17am 224 2 3 39 87 74.0 55.6 29.27 55.6 603 950 540 -1.32 0.00 0.00 0.000
5:18am 224 0 3 39 87 74.0 55.6 29.27 55.6 603 950 540 -1.30 0.00 0.00 0.000
5:19am 226 3 3 39 87 74.0 55.5 29.27 55.5 603 950 533 -1.38 0.00 0.00 0.000
5:20am 226 0 3 39 87 74.0 55.5 29.27 55.5 604 950 534 -1.35 0.00 0.00 0.000
5:21am 236 1 4 39 87 74.0 55.5 29.27 55.5 602 950 532 -1.33 0.00 0.00 0.000
5:22am 236 1 4 39 87 74.0 55.5 29.27 55.5 602 950 532 -1.31 0.00 0.00 0.000
5:23am 192 1 4 39 87 74.0 55.5 29.28 55.5 601 950 531 -1.29 0.00 0.00 0.000
5:24am 192 2 4 39 87 74.0 55.5 29.27 55.5 602 950 532 -1.27 0.00 0.00 0.000
5:25am 192 1 4 39 87 74.0 55.4 29.27 55.4 602 950 525 -1.34 0.00 0.00 0.000
5:26am 192 1 2 39 87 74.0 55.4 29.27 55.4 602 950 525 -1.32 0.00 0.00 0.000
5:27am 192 1 3 39 87 74.0 55.4 29.28 55.4 601 950 524 -1.30 0.00 0.00 0.000
5:28am 192 0 3 39 87 74.0 55.3 29.28 55.3 601 949 518 -1.38 0.00 0.00 0.000
5:29am 192 1 3 39 87 74.0 55.3 29.28 55.3 601 949 518 -1.35 0.00 0.00 0.000
5:30am 192 1 3 39 87 74.0 55.3 29.28 55.3 600 949 516 -1.33 0.00 0.00 0.000
5:31am 192 2 2 39 87 74.0 55.2 29.28 55.2 601 949 511 -1.41 0.00 0.00 0.000
5:32am 192 1 2 39 87 74.0 55.2 29.28 55.2 600 949 510 -1.39 0.00 0.00 0.000
5:33am 192 1 2 39 87 74.0 55.1 29.28 55.1 600 948 503 -1.46 0.00 0.00 0.000
5:34am 192 1 2 39 87 74.0 55.1 29.28 55.1 600 948 503 -1.44 0.00 0.00 0.000
5:35am 192 1 2 39 87 74.0 55.0 29.28 55.0 600 948 497 -1.52 0.00 0.00 0.000
5:36am 192 0 2 39 87 74.0 54.9 29.28 54.9 600 948 490 -1.59 0.00 0.00 0.000
5:37am 192 2 2 39 87 74.0 54.9 29.28 54.9 599 948 489 -1.56 0.00 0.00 0.000
5:38am 192 2 3 39 87 74.0 54.9 29.28 54.9 599 948 489 -1.54 0.00 0.00 0.000
5:39am 192 2 3 39 87 74.0 54.9 29.28 54.9 599 948 489 -1.51 0.00 0.00 0.000
5:40am 192 2 3 39 87 74.0 54.8 29.28 54.8 599 947 482 -1.59 0.00 0.00 0.000
5:41am 192 1 3 39 87 74.0 54.8 29.28 54.8 599 947 482 -1.56 0.00 0.00 0.000
5:42am 192 0 3 39 88 74.0 54.8 29.28 54.8 599 870 482 -1.54 0.00 0.00 0.000
5:43am 192 0 3 39 87 74.0 54.8 29.28 54.8 599 947 482 -1.51 0.00 0.00 0.000
5:44am 192 0 3 39 87 74.0 54.8 29.28 54.8 599 947 482 -1.48 0.00 0.00 0.000
5:45am 192 2 3 39 87 74.0 54.8 29.28 54.8 599 947 482 -1.46 0.00 0.00 0.000
5:46am 192 1 2 39 87 74.0 54.7 29.28 54.7 599 947 476 -1.53 0.00 0.00 0.000
5:47am 192 1 2 39 87 74.0 54.7 29.28 54.7 599 947 476 -1.51 0.00 0.00 0.000
5:48am 192 1 2 39 87 74.0 54.7 29.28 54.7 599 947 476 -1.48 0.00 0.00 0.000
5:49am 192 1 2 39 87 74.0 54.7 29.28 54.7 600 947 477 -1.46 0.00 0.00 0.000
5:50am 192 0 2 39 87 74.0 54.7 29.28 54.7 599 947 476 -1.44 0.00 0.00 0.000
5:51am 192 1 2 39 87 74.0 54.6 29.28 54.6 599 946 469 -1.51 0.00 0.00 0.000
5:52am 192 0 2 39 87 74.0 54.7 29.28 54.7 600 947 477 -1.39 0.00 0.00 0.000
5:53am 192 0 2 39 87 74.0 54.7 29.28 54.7 599 947 476 -1.36 0.00 0.00 0.000
5:54am 192 0 2 39 87 74.0 54.6 29.28 54.6 599 946 469 -1.44 0.00 0.00 0.000
5:55am 192 1 2 39 86 74.0 54.6 29.28 54.6 600 1024 470 -1.42 0.00 0.00 0.000
5:56am 192 1 2 39 86 74.0 54.5 29.28 54.5 600 1024 464 -1.49 0.00 0.00 0.000
5:57am 192 1 3 39 87 74.0 54.6 29.28 54.6 600 946 470 -1.37 0.00 0.00 0.000
5:58am 192 1 3 39 87 74.0 54.5 29.28 54.5 600 946 464 -1.44 0.00 0.00 0.000
5:59am 192 1 3 39 87 74.0 54.5 29.28 54.5 600 946 464 -1.42 0.00 0.00 0.000
6:00am 192 1 3 39 87 74.0 54.5 29.28 54.5 600 946 464 -1.39 0.00 0.00 0.000
6:01am 192 0 2 39 86 74.0 54.5 29.28 54.5 600 1024 464 -1.37 0.00 0.00 0.000
6:02am 192 1 2 39 86 74.0 54.5 29.28 54.5 599 1024 462 -1.35 0.00 0.00 0.000
6:03am 192 2 2 39 86 74.0 54.6 29.28 54.6 600 1024 470 -1.23 0.00 0.00 0.000
6:04am 192 1 2 39 86 74.0 54.6 29.28 54.6 599 1024 469 -1.21 0.00 0.00 0.000
6:05am 192 1 2 39 86 74.0 54.6 29.28 54.6 600 1024 470 -1.19 0.00 0.00 0.000
6:06am 192 1 2 39 86 74.0 54.6 29.28 54.6 599 1024 469 -1.17 0.00 0.00 0.000
6:07am 192 1 2 39 86 74.0 54.6 29.28 54.6 599 1024 469 -1.15 0.00 0.00 0.000
6:08am 192 2 2 39 86 74.0 54.6 29.28 54.6 598 1024 468 -1.13 0.00 0.00 0.000
6:09am 192 1 2 39 86 74.0 54.7 29.28 54.7 598 1025 475 -1.01 0.00 0.00 0.000
6:10am 192 0 2 39 86 74.0 54.7 29.28 54.7 598 1025 475 -1.00 0.00 0.00 0.000
6:11am 192 2 2 39 86 74.0 54.7 29.28 54.7 598 1025 475 -0.98 0.00 0.00 0.000
6:12am 192 2 2 39 85 74.0 54.7 29.28 54.7 598 1103 475 -0.96 0.00 0.00 0.000
6:13am 192 1 3 39 85 74.0 54.6 29.28 54.6 598 1103 468 -1.05 0.00 0.00 0.000
6:14am 192 1 3 39 85 74.0 54.7 29.28 54.7 597 1103 473 -0.93 0.00 0.00 0.000
6:15am 192 0 3 39 85 74.0 54.7 29.28 54.7 597 1103 473 -0.91 0.00 0.00 0.000
6:16am 192 0 0 39 85 74.0 54.7 29.28 54.7 596 1103 472 -0.90 0.00 0.00 0.000
6:17am 192 1 1 39 86 74.0 54.7 29.28 54.7 596 1025 472 -0.88 0.00 0.00 0.000
6:18am 192 1 2 39 86 74.0 54.6 29.28 54.6 596 1024 464 -0.97 0.00 0.00 0.000
6:19am 192 1 2 39 86 74.0 54.7 29.28 54.7 596 1025 471 -0.85 0.00 0.00 0.000
6:20am 192 1 2 39 85 74.0 54.7 29.29 54.7 592 1103 467 -0.84 0.00 0.00 0.000
6:21am 192 2 4 39 86 74.0 54.7 29.28 54.7 593 1025 468 -0.83 0.00 0.00 0.000
6:22am 192 2 4 39 86 74.0 54.7 29.28 54.7 595 1025 470 -0.81 0.00 0.00 0.000
6:23am 192 1 4 39 86 74.0 54.7 29.29 54.7 592 1025 467 -0.80 0.00 0.00 0.000
6:24am 192 3 4 39 86 74.0 54.6 29.29 54.6 591 1024 459 -0.88 0.00 0.00 0.000
6:25am 191 2 4 39 86 74.0 54.6 29.29 54.6 588 1024 455 -0.87 0.00 0.00 0.000
6:26am 191 1 2 39 86 74.0 54.5 29.29 54.5 586 1024 446 -0.96 0.00 0.00 0.000
6:27am 180 4 4 39 86 74.0 54.5 29.29 54.1 586 1024 446 -0.94 0.00 0.00 0.000
6:28am 177 1 4 39 86 74.0 54.5 29.29 54.5 587 1024 448 -0.92 0.00 0.00 0.000
6:29am 177 2 4 39 86 74.0 54.5 29.29 54.5 588 1024 449 -0.91 0.00 0.00 0.000
6:30am 171 3 5 39 86 74.2 54.5 29.29 54.5 589 1024 450 -0.89 0.00 0.00 0.000
6:31am 171 1 3 39 86 74.2 54.5 29.29 54.5 589 1024 450 -0.88 0.00 0.00 0.000
6:32am 171 1 3 39 86 74.2 54.4 29.29 54.4 587 1023 441 -0.96 0.00 0.00 0.000
6:33am 171 1 3 39 86 74.2 54.4 29.29 54.4 587 1023 441 -0.95 0.00 0.00 0.000
6:34am 171 0 3 39 86 74.2 54.3 29.29 54.3 586 1023 433 -1.03 0.00 0.00 0.000
6:35am 171 0 3 39 86 74.2 54.4 29.29 54.4 586 1023 440 -0.91 0.00 0.00 0.000
6:36am 171 1 1 39 86 74.2 54.3 29.29 54.3 586 1023 433 -1.00 0.00 0.00 0.000
6:37am 171 2 2 39 86 74.2 54.4 29.29 54.4 587 1023 441 -0.88 0.00 0.00 0.000
6:38am 171 0 2 39 86 74.2 54.4 29.29 54.4 586 1023 440 -0.87 0.00 0.00 0.000
6:39am 171 0 2 39 85 74.2 54.4 29.29 54.4 584 1102 438 -0.85 0.00 0.00 0.000
6:40am 171 0 2 39 85 74.2 54.4 29.29 54.4 584 1102 438 -0.84 0.00 0.00 0.000
6:41am 171 0 0 39 85 74.2 54.4 29.29 54.4 584 1102 438 -0.82 0.00 0.00 0.000
6:42am 171 0 0 39 85 74.2 54.4 29.29 54.4 584 1102 436 -0.81 0.00 0.00 0.000
6:43am 171 0 0 39 85 74.2 54.4 29.29 54.4 584 1102 436 -0.80 0.00 0.00 0.000
6:44am 171 0 0 39 85 74.2 54.5 29.29 54.5 584 1102 443 -0.68 0.00 0.00 0.000
6:45am 162 5 5 39 85 74.2 54.5 29.29 53.5 584 1102 443 -0.67 0.00 0.00 0.000
6:46am 152 2 5 39 85 74.2 54.5 29.29 54.5 584 1102 443 -0.66 0.00 0.00 0.000
6:47am 162 4 5 39 85 74.2 54.6 29.29 54.2 584 1103 450 -0.55 0.00 0.00 0.000
6:48am 164 3 5 39 85 74.2 54.6 29.29 54.6 584 1103 450 -0.54 0.00 0.00 0.000
6:49am 164 3 5 39 85 74.2 54.7 29.29 54.7 584 1103 456 -0.44 0.00 0.00 0.000
6:50am 164 2 5 39 85 74.2 54.7 29.29 54.7 584 1103 456 -0.43 0.00 0.00 0.000
6:51am 164 2 2 39 85 74.2 54.8 29.29 54.8 584 1104 463 -0.32 0.00 0.00 0.000
6:52am 164 1 2 39 85 74.2 54.8 29.29 54.8 584 1104 463 -0.32 0.00 0.00 0.000
6:53am 164 1 2 39 85 74.2 54.9 29.30 54.9 583 1104 468 -0.21 0.00 0.00 0.000
6:54am 164 1 3 39 85 74.2 54.9 29.30 54.9 583 1104 468 -0.21 0.00 0.00 0.000
6:55am 164 1 3 39 85 74.2 55.0 29.30 55.0 583 1105 475 -0.11 0.00 0.00 0.000
6:56am 164 2 3 39 85 74.2 55.0 29.30 55.0 583 1105 475 -0.10 0.00 0.00 0.000
6:57am 237 3 3 39 84 74.2 55.1 29.30 55.1 583 1185 482 -0.00 0.00 0.00 0.000
6:58am 224 2 5 39 84 74.2 55.1 29.30 55.1 583 1185 482 -0.00 0.00 0.00 0.000
6:59am 224 0 5 39 85 74.2 55.2 29.30 55.2 583 1106 488 0.10 0.00 0.00 0.000
7:00am 224 0 5 39 85 74.2 55.3 29.30 55.3 582 1106 494 0.19 0.00 0.00 0.000
7:01am 224 0 0 39 84 74.2 55.4 29.30 55.4 581 1187 499 0.29 0.00 0.00 0.000
7:02am 224 0 0 39 84 74.2 55.3 29.30 55.3 581 1186 493 0.18 0.00 0.00 0.000
7:03am 196 0 0 39 84 74.2 55.4 29.30 55.4 581 1187 499 0.28 0.00 0.00 0.000
7:04am 196 0 0 39 85 74.2 55.4 29.30 55.4 581 1107 499 0.28 0.00 0.00 0.000
7:05am 199 0 0 39 85 74.2 55.4 29.30 55.4 581 1107 499 0.27 0.00 0.00 0.000
7:06am 206 0 0 39 84 74.2 55.5 29.30 55.5 582 1187 507 0.37 0.00 0.00 0.000
7:07am 179 0 0 39 83 74.2 55.6 29.30 55.6 581 1268 512 0.46 0.00 0.00 0.000
7:08am 179 0 0 39 83 74.2 55.7 29.30 55.7 581 1269 519 0.55 0.00 0.00 0.000
7:09am 179 0 0 39 83 74.2 55.9 29.30 55.9 582 1270 533 0.74 0.00 0.00 0.000
7:10am 179 0 0 39 83 74.2 55.9 29.30 55.9 581 1270 532 0.73 0.00 0.00 0.000
7:11am 195 0 0 39 83 74.2 56.0 29.30 56.0 580 1271 538 0.81 0.00 0.00 0.000
7:12am 195 0 2 39 82 74.2 56.2 29.30 56.2 579 1353 550 1.00 0.00 0.00 0.000
7:13am 195 2 2 39 82 74.2 56.3 29.30 56.3 578 1354 555 1.08 0.00 0.00 0.000
7:14am 197 3 3 39 82 74.2 56.5 29.30 56.5 578 1355 568 1.26 0.00 0.00 0.000
7:15am 189 5 6 39 81 74.2 56.6 29.30 56.0 577 1439 574 1.34 0.00 0.00 0.000
7:16am 232 3 5 39 81 74.2 56.7 29.30 56.7 577 1439 580 1.42 0.00 0.00 0.000
7:17am 208 3 5 39 81 74.2 56.9 29.30 56.9 576 1440 592 1.59 0.00 0.00 0.000
7:18am 235 4 5 39 81 74.2 57.1 29.30 57.1 576 1442 606 1.76 0.00 0.00 0.000
7:19am 267 1 5 39 80 74.2 57.2 29.30 57.2 576 1526 612 1.83 0.00 0.00 0.000
7:20am 268 1 5 40 80 74.2 57.4 29.30 57.4 575 1528 624 2.00 0.00 0.00 0.000
7:21am 172 5 6 39 81 74.2 57.5 29.30 57.0 576 1444 632 2.06 0.00 0.00 0.000
7:22am 177 1 6 39 80 74.2 57.6 29.30 57.6 576 1529 638 2.13 0.00 0.00 0.000
7:23am 256 5 6 39 80 74.2 57.8 29.30 57.4 576 1530 652 2.29 0.00 0.00 0.000
7:24am 201 3 6 39 79 74.2 57.8 29.30 57.8 576 1615 652 2.26 0.00 0.00 0.000
7:25am 279 2 6 39 79 74.2 58.0 29.30 58.0 576 1617 665 2.41 0.00 0.00 0.000
7:26am 199 2 4 39 78 74.2 58.1 29.30 58.1 577 1704 672 2.48 0.00 0.00 0.000
7:27am 199 2 4 39 79 74.3 58.2 29.30 58.2 576 1618 678 2.53 0.00 0.00 0.000
7:28am 246 1 4 39 78 74.3 58.3 29.30 58.3 576 1705 684 2.59 0.00 0.00 0.000
7:29am 246 1 4 39 78 74.2 58.4 29.30 58.4 576 1706 691 2.65 0.00 0.00 0.000
7:30am 246 0 4 39 78 74.2 58.4 29.30 58.4 575 1706 690 2.60 0.00 0.00 0.000
7:31am 248 2 2 39 78 74.3 58.5 29.30 58.5 575 1706 696 2.66 0.00 0.00 0.000
7:32am 206 4 4 39 78 74.2 58.5 29.30 58.5 578 1706 700 2.62 0.00 0.00 0.000
7:33am 204 0 5 39 78 74.3 58.6 29.30 58.6 579 1707 708 2.67 0.00 0.00 0.000
7:34am 204 3 5 39 78 74.3 58.7 29.30 58.7 577 1708 712 2.73 0.00 0.00 0.000
7:35am 204 1 5 39 78 74.3 58.7 29.30 58.7 577 1708 712 2.68 0.00 0.00 0.000
7:36am 204 1 2 39 78 74.3 58.7 29.30 58.7 577 1708 712 2.64 0.00 0.00 0.000
7:37am 208 1 3 39 78 74.3 58.8 29.30 58.8 575 1709 716 2.69 0.00 0.00 0.000
7:38am 208 1 3 39 77 74.3 58.8 29.30 58.8 574 1796 715 2.65 0.00 0.00 0.000
7:39am 206 0 3 39 77 74.3 58.9 29.31 58.9 572 1797 719 2.71 0.00 0.00 0.000
7:40am 206 0 3 39 77 74.3 59.0 29.31 59.0 572 1798 725 2.76 0.00 0.00 0.000
7:41am 226 2 5 39 78 74.3 59.0 29.31 59.0 572 1710 725 2.72 0.00 0.00 0.000
7:42am 226 1 5 39 78 74.3 59.1 29.31 59.1 571 1711 730 2.77 0.00 0.00 0.000
7:43am 226 2 5 39 77 74.3 59.1 29.31 59.1 571 1798 730 2.72 0.00 0.00 0.000
7:44am 226 2 5 39 78 74.3 59.2 29.31 59.2 571 1712 737 2.77 0.00 0.00 0.000
7:45am 199 2 5 39 77 74.3 59.2 29.31 59.2 571 1799 737 2.73 0.00 0.00 0.000
7:46am 193 3 3 39 76 74.3 59.3 29.31 59.3 572 1889 744 2.78 0.00 0.00 0.000
7:47am 220 3 8 39 76 74.3 59.4 29.31 59.4 572 1889 751 2.84 0.00 0.00 0.000
7:48am 220 2 8 39 76 74.3 59.5 29.31 59.5 572 1890 759 2.89 0.00 0.00 0.000
7:49am 220 2 8 39 76 74.3 59.6 29.31 59.6 571 1891 763 2.94 0.00 0.00 0.000
7:50am 220 1 8 39 76 74.3 59.7 29.31 59.7 571 1892 769 2.99 0.00 0.00 0.000
7:51am 220 0 2 39 76 74.3 59.8 29.31 59.8 571 1893 776 3.04 0.00 0.00 0.000
7:52am 220 0 2 39 76 74.3 59.8 29.31 59.8 571 1893 776 2.99 0.00 0.00 0.000
7:53am 220 2 2 39 77 74.3 59.9 29.31 59.9 571 1805 782 3.04 0.00 0.00 0.000
7:54am 220 1 2 39 76 74.3 60.0 29.31 60.0 571 1894 789 3.09 0.00 0.00 0.000
7:55am 175 3 3 39 76 74.3 60.0 29.31 60.0 571 1894 789 3.03 0.00 0.00 0.000
7:56am 220 2 4 39 75 74.3 60.1 29.31 60.1 571 1985 795 3.09 0.00 0.00 0.000
7:57am 181 2 5 39 75 74.3 60.2 29.31 60.2 571 1986 802 3.14 0.00 0.00 0.000
7:58am 181 0 5 39 75 74.3 60.4 29.31 60.4 571 1987 815 3.28 0.00 0.00 0.000
7:59am 205 4 5 39 76 74.3 60.5 29.31 60.5 570 1898 820 3.33 0.00 0.00 0.000
8:00am 223 0 5 39 75 74.3 60.5 29.31 60.5 570 1988 820 3.27 0.00 0.00 0.000
8:01am 223 3 3 39 75 74.3 60.7 29.31 60.7 570 1990 834 3.42 0.00 0.00 0.000
8:02am 223 1 3 39 75 74.3 60.8 29.31 60.8 570 1991 840 3.46 0.00 0.00 0.000
8:03am 231 2 3 39 74 74.3 60.9 29.31 60.9 570 2083 847 3.50 0.00 0.00 0.000
8:04am 230 2 3 39 75 74.3 60.9 29.31 60.9 570 1992 847 3.45 0.00 0.00 0.000
8:05am 134 1 3 39 74 74.3 61.0 29.31 61.0 569 2084 852 3.49 0.00 0.00 0.000
8:06am 142 2 2 39 74 74.3 61.1 29.31 61.1 570 2085 860 3.53 0.00 0.00 0.000
8:07am 142 2 2 39 74 74.3 61.2 29.31 61.2 570 2086 866 3.57 0.00 0.00 0.000
8:08am 196 3 3 39 75 74.3 61.3 29.31 61.3 570 1995 873 3.61 0.00 0.00 0.000
8:09am 197 2 4 39 73 74.3 61.4 29.31 61.4 570 2180 879 3.65 0.00 0.00 0.000
8:10am 197 0 4 39 74 74.3 61.5 29.31 61.5 570 2088 886 3.69 0.00 0.00 0.000
8:11am 197 0 2 39 74 74.3 61.5 29.31 61.5 570 2088 886 3.63 0.00 0.00 0.000
8:12am 197 2 3 39 74 74.3 61.6 29.31 61.6 570 2089 892 3.67 0.00 0.00 0.000
8:13am 197 2 3 39 74 74.3 61.7 29.31 61.7 570 2090 899 3.71 0.00 0.00 0.000
8:14am 197 0 3 39 72 74.3 61.8 29.31 61.8 570 2278 905 3.75 0.00 0.00 0.000
8:15am 197 0 3 39 73 74.3 61.8 29.31 61.8 569 2184 904 3.68 0.00 0.00 0.000
8:16am 197 1 1 39 73 74.3 61.8 29.31 61.8 569 2184 904 3.62 0.00 0.00 0.000
8:17am 197 2 3 39 73 74.3 61.9 29.31 61.9 569 2185 911 3.66 0.00 0.00 0.000
8:18am 197 0 3 39 73 74.3 62.0 29.31 62.0 569 2186 917 3.70 0.00 0.00 0.000
8:19am 197 1 3 39 73 74.3 62.1 29.31 62.1 569 2187 924 3.74 0.00 0.00 0.000
8:20am 197 2 4 39 73 74.3 62.1 29.31 62.1 569 2187 924 3.68 0.00 0.00 0.000
8:21am 197 1 2 39 72 74.3 62.2 29.31 62.2 569 2282 930 3.71 0.00 0.00 0.000
8:22am 209 3 3 39 72 74.3 62.2 29.31 62.2 569 2282 930 3.65 0.00 0.00 0.000
8:23am 239 3 3 39 72 74.3 62.3 29.31 62.3 569 2283 937 3.69 0.00 0.00 0.000
8:24am 233 1 6 39 72 74.3 62.5 29.31 62.5 569 2284 950 3.83 0.00 0.00 0.000
8:25am 170 2 6 39 72 74.3 62.5 29.31 62.5 569 2284 950 3.76 0.00 0.00 0.000
8:26am 187 2 3 39 71 74.3 62.7 29.31 62.7 569 2382 963 3.90 0.00 0.00 0.000
8:27am 294 1 3 39 71 74.3 62.8 29.31 62.8 569 2383 969 3.94 0.00 0.00 0.000
8:28am 211 2 4 39 71 74.3 62.9 29.31 62.9 569 2384 976 3.97 0.00 0.00 0.000
8:29am 229 5 6 39 71 74.3 63.1 29.31 63.1 569 2386 989 4.10 0.00 0.00 0.000
8:30am 212 1 6 39 70 74.3 63.1 29.31 63.1 569 2483 989 4.04 0.00 0.00 0.000
8:31am 211 1 1 39 71 74.3 63.2 29.31 63.2 568 2387 994 4.07 0.00 0.00 0.000
8:32am 244 0 5 39 70 74.3 63.3 29.31 63.3 569 2485 1002 4.10 0.00 0.00 0.000
8:33am 249 2 5 39 71 74.3 63.4 29.31 63.4 567 2389 1006 4.13 0.00 0.00 0.000
8:34am 220 1 5 39 70 74.3 63.5 29.31 63.5 566 2487 1011 4.16 0.00 0.00 0.000
8:35am 204 4 5 39 70 74.3 63.5 29.31 63.5 565 2487 1010 4.09 0.00 0.00 0.000
8:36am 208 1 5 39 69 74.3 63.6 29.32 63.6 564 2586 1015 4.12 0.00 0.00 0.000
8:37am 236 2 5 39 70 74.3 63.7 29.31 63.7 565 2489 1023 4.16 0.00 0.00 0.000
8:38am 220 2 5 39 70 74.3 63.8 29.32 63.8 564 2490 1028 4.19 0.00 0.00 0.000
8:39am 2 0 5 39 70 74.3 63.9 29.31 63.9 566 2491 1037 4.22 0.00 0.00 0.000
8:40am 214 3 5 39 69 74.3 64.1 29.31 64.1 565 2592 1049 4.34 0.00 0.00 0.000
8:41am 216 2 3 39 69 74.5 64.2 29.31 64.2 565 2593 1055 4.37 0.00 0.00 0.000
8:42am 345 5 5 39 68 74.5 64.4 29.31 64.4 565 2695 1068 4.50 0.00 0.00 0.000
8:43am 183 4 8 39 67 74.3 64.5 29.31 64.5 568 2797 1078 4.52 0.00 0.00 0.000
8:44am 236 3 9 39 66 74.5 64.6 29.31 64.6 568 2900 1085 4.55 0.00 0.00 0.000
8:45am 189 4 9 39 67 74.5 64.8 29.31 64.8 568 2800 1098 4.66 0.00 0.00 0.000
8:46am 207 4 6 39 67 74.5 64.9 29.31 64.9 568 2802 1104 4.69 0.00 0.00 0.000
8:47am 228 4 8 39 67 74.5 65.0 29.31 65.0 568 2803 1110 4.71 0.00 0.00 0.000
8:48am 226 2 8 39 67 74.5 65.2 29.31 65.2 567 2805 1122 4.83 0.00 0.00 0.000
8:49am 145 2 8 39 68 74.5 65.3 29.31 65.3 567 2705 1129 4.86 0.00 0.00 0.000
8:50am 208 2 8 39 68 74.5 65.4 29.31 65.4 566 2706 1134 4.87 0.00 0.00 0.000
8:51am 255 2 7 39 66 74.5 65.5 29.31 65.5 568 2912 1143 4.89 0.00 0.00 0.000
8:52am 267 3 7 39 66 74.5 65.6 29.31 65.6 568 2913 1149 4.91 0.00 0.00 0.000
8:53am 270 2 7 39 65 74.5 65.8 29.31 65.8 568 3020 1162 5.03 0.00 0.00 0.000
8:54am 218 2 7 39 65 74.5 65.8 29.31 65.8 568 3020 1162 4.94 0.00 0.00 0.000
8:55am 158 3 7 39 64 74.5 65.9 29.31 65.9 567 3127 1167 4.96 0.00 0.00 0.000
8:56am 316 1 3 39 64 74.5 66.0 29.31 66.0 568 3128 1175 4.97 0.00 0.00 0.000
8:57am 314 1 3 39 65 74.5 66.1 29.31 66.1 569 3023 1183 4.99 0.00 0.00 0.000
8:58am 244 0 4 39 65 74.5 66.3 29.31 66.3 568 3026 1194 5.11 0.00 0.00 0.000
8:59am 244 1 4 39 65 74.5 66.4 29.31 66.4 569 3027 1202 5.13 0.00 0.00 0.000
9:00am 244 1 4 39 65 74.5 66.5 29.31 66.5 569 3029 1208 5.14 0.00 0.00 0.000
9:01am 198 1 2 39 65 74.5 66.6 29.31 66.6 570 3030 1216 5.16 0.00 0.00 0.000
9:02am 249 2 7 39 64 74.5 66.7 29.31 66.7 570 3137 1222 5.17 0.00 0.00 0.000
9:03am 241 4 7 39 63 74.5 66.8 29.31 66.8 571 3246 1230 5.18 0.00 0.00 0.000
9:04am 235 2 7 39 64 74.5 66.9 29.31 66.9 571 3140 1236 5.20 0.00 0.00 0.000
9:05am 181 1 7 39 64 74.5 67.0 29.31 67.0 571 3141 1243 5.21 0.00 0.00 0.000
9:06am 90 0 5 40 63 74.5 67.1 29.31 67.1 572 3250 1250 5.22 0.00 0.00 0.000
9:07am 90 1 5 39 64 74.5 67.3 29.31 67.3 572 3145 1263 5.34 0.00 0.00 0.000
9:08am 90 2 5 39 64 74.5 67.4 29.31 67.4 571 3147 1269 5.35 0.00 0.00 0.000
9:09am 227 2 5 39 64 74.5 67.6 29.31 67.6 571 3149 1281 5.46 0.00 0.00 0.000
9:10am 249 2 5 39 62 74.5 67.6 29.31 67.6 571 3367 1281 5.37 0.00 0.00 0.000
9:11am 256 1 7 39 62 74.5 67.7 29.31 67.7 570 3368 1287 5.38 0.00 0.00 0.000
9:12am 235 2 7 39 62 74.5 67.8 29.31 67.8 570 3370 1293 5.39 0.00 0.00 0.000
9:13am 169 2 7 39 62 74.5 67.9 29.31 67.9 570 3371 1299 5.39 0.00 0.00 0.000
9:14am 169 1 7 39 63 74.5 68.0 29.31 68.0 569 3263 1305 5.41 0.00 0.00 0.000
9:15am 170 2 7 39 63 74.5 68.0 29.31 68.0 570 3263 1306 5.32 0.00 0.00 0.000
9:16am 198 1 3 39 62 74.5 68.1 29.31 68.1 569 3374 1311 5.33 0.00 0.00 0.000
9:17am 241 2 6 39 62 74.5 68.3 29.31 68.3 569 3377 1324 5.44 0.00 0.00 0.000
9:18am 214 3 6 39 62 74.5 68.3 29.31 68.3 570 3377 1325 5.35 0.00 0.00 0.000
9:19am 230 2 7 39 61 74.5 68.4 29.31 68.4 569 3490 1330 5.36 0.00 0.00 0.000
9:20am 237 1 10 39 61 74.5 68.4 29.31 68.4 569 3490 1330 5.28 0.00 0.00 0.000
9:21am 273 3 6 39 62 74.5 68.5 29.31 68.5 570 3380 1338 5.28 0.00 0.00 0.000
9:22am 212 2 6 39 62 74.5 68.6 29.31 68.6 570 3381 1344 5.30 0.00 0.00 0.000
9:23am 267 1 6 39 61 74.5 68.7 29.31 68.7 571 3494 1352 5.31 0.00 0.00 0.000
9:24am 198 1 6 39 62 74.5 68.8 29.31 68.8 570 3384 1357 5.32 0.00 0.00 0.000
9:25am 229 0 6 39 62 74.5 68.9 29.31 68.9 571 3385 1365 5.33 0.00 0.00 0.000
9:26am 133 6 6 39 62 74.5 69.0 29.31 69.0 571 3387 1371 5.34 0.00 0.00 0.000
9:27am 179 2 6 39 62 74.5 69.2 29.31 69.2 571 3389 1384 5.45 0.00 0.00 0.000
9:28am 212 1 6 39 61 74.5 69.4 29.31 69.4 571 3504 1397 5.56 0.00 0.00 0.000
9:29am 276 2 6 39 60 74.5 69.5 29.31 69.5 571 3619 1403 5.57 0.00 0.00 0.000
9:30am 279 4 8 39 61 74.5 69.6 29.31 69.6 572 3507 1411 5.58 0.00 0.00 0.000
9:31am 194 3 5 39 61 74.5 69.7 29.31 69.7 571 3509 1416 5.58 0.00 0.00 0.000
9:32am 194 0 5 39 60 74.5 69.7 29.31 69.7 572 3622 1417 5.49 0.00 0.00 0.000
9:33am 271 0 7 39 59 74.5 69.8 29.31 69.8 572 3739 1425 5.50 0.00 0.00 0.000
9:34am 227 1 7 39 60 74.5 69.9 29.31 69.9 572 3625 1431 5.51 0.00 0.00 0.000
9:35am 227 0 7 39 61 74.5 69.9 29.31 69.9 572 3512 1431 5.41 0.00 0.00 0.000
9:36am 210 6 7 39 62 74.5 70.1 29.31 70.1 572 3402 1444 5.52 0.00 0.00 0.000
9:37am 181 4 7 39 60 74.5 70.2 29.31 70.2 573 3630 1451 5.53 0.00 0.00 0.000
9:38am 160 1 7 39 60 74.7 70.3 29.31 70.3 573 3632 1458 5.54 0.00 0.00 0.000
9:39am 160 1 7 39 61 74.7 70.4 29.31 70.4 573 3519 1464 5.55 0.00 0.00 0.000
9:40am 256 4 7 39 59 74.5 70.5 29.30 70.5 575 3750 1473 5.56 0.00 0.00 0.000
9:41am 101 2 5 39 60 74.5 70.6 29.30 70.6 575 3636 1479 5.56 0.00 0.00 0.000
9:42am 236 3 6 39 59 74.5 70.7 29.30 70.7 578 3753 1489 5.57 0.00 0.00 0.000
9:43am 224 1 6 39 60 74.5 70.9 29.30 70.9 577 3641 1500 5.68 0.00 0.00 0.000
9:44am 168 6 6 39 60 74.5 71.0 29.30 71.0 578 3642 1508 5.69 0.00 0.00 0.000
9:45am 181 5 8 39 58 74.5 71.0 29.30 71.0 580 3876 1510 5.59 0.00 0.00 0.000
9:46am 202 6 6 39 58 74.5 71.1 29.30 71.1 579 3878 1515 5.60 0.00 0.00 0.000
9:47am 274 2 6 39 58 74.3 71.1 29.30 71.1 582 3878 1519 5.50 0.00 0.00 0.000
9:48am 270 2 6 39 59 74.3 71.2 29.30 71.2 581 3761 1524 5.52 0.00 0.00 0.000
9:49am 265 2 6 39 60 74.3 71.2 29.30 71.2 580 3645 1523 5.42 0.00 0.00 0.000
9:50am 240 4 7 39 60 74.3 71.3 29.30 71.3 582 3647 1532 5.43 0.00 0.00 0.000
9:51am 210 0 6 39 57 74.3 71.3 29.30 71.3 582 4001 1532 5.34 0.00 0.00 0.000
9:52am 212 1 6 39 58 74.3 71.3 29.30 71.3 579 3881 1528 5.26 0.00 0.00 0.000
9:53am 129 4 6 39 59 74.3 71.4 29.30 71.4 579 3764 1535 5.27 0.00 0.00 0.000
9:54am 206 2 6 39 57 74.2 71.5 29.30 71.5 579 4004 1541 5.28 0.00 0.00 0.000
9:55am 179 4 6 39 59 74.2 71.6 29.30 71.6 581 3768 1550 5.29 0.00 0.00 0.000
9:56am 191 4 6 39 58 74.2 71.7 29.30 71.7 581 3887 1556 5.30 0.00 0.00 0.000
9:57am 190 2 6 39 57 74.2 71.8 29.29 71.8 584 4009 1566 5.32 0.00 0.00 0.000
9:58am 191 0 6 39 59 74.2 71.9 29.30 71.9 583 3772 1571 5.32 0.00 0.00 0.000
9:59am 191 1 6 39 58 74.0 72.1 29.29 72.1 584 3894 1586 5.43 0.00 0.00 0.000
10:00am 126 1 6 39 58 74.0 72.2 29.29 72.2 584 3895 1591 5.44 0.00 0.00 0.000
10:01am 179 3 6 39 57 74.0 72.3 29.29 72.3 584 4017 1597 5.46 0.00 0.00 0.000
10:02am 276 1 6 39 57 74.0 72.4 29.30 72.4 582 4019 1601 5.46 0.00 0.00 0.000
10:03am 273 1 6 39 58 74.0 72.5 29.30 72.5 582 3900 1608 5.47 0.00 0.00 0.000
10:04am 248 1 6 39 58 74.0 72.7 29.30 72.7 582 3903 1621 5.58 0.00 0.00 0.000
10:05am 248 1 6 39 58 74.0 72.8 29.30 72.8 583 3905 1628 5.59 0.00 0.00 0.000
10:06am 214 4 5 39 58 74.0 72.9 29.30 72.9 582 3907 1633 5.59 0.00 0.00 0.000
10:07am 181 5 7 39 57 74.0 73.0 29.30 73.0 583 4029 1641 5.60 0.00 0.00 0.000
10:08am 171 3 7 39 56 74.0 72.9 29.30 72.9 583 4150 1634 5.41 0.00 0.00 0.000
10:09am 186 2 7 39 57 73.8 72.9 29.29 72.9 584 4027 1635 5.32 0.00 0.00 0.000
10:10am 263 3 7 39 56 73.8 72.8 29.30 72.8 583 4148 1628 5.13 0.00 0.00 0.000
10:11am 220 2 3 39 58 73.8 72.8 29.30 72.8 583 3905 1628 5.05 0.00 0.00 0.000
10:12am 251 2 4 39 57 73.8 72.8 29.30 72.8 582 4025 1627 4.96 0.00 0.00 0.000
10:13am 183 1 4 39 58 73.8 72.8 29.30 72.8 583 3905 1628 4.88 0.00 0.00 0.000
10:14am 226 4 5 39 58 73.8 72.9 29.30 72.9 583 3907 1634 4.90 0.00 0.00 0.000
10:15am 254 4 7 39 56 73.8 72.8 29.30 72.8 583 4148 1628 4.72 0.00 0.00 0.000
10:16am 320 2 5 39 56 74.0 72.8 29.30 72.8 581 4148 1626 4.64 0.00 0.00 0.000
10:17am 245 2 5 39 57 73.8 72.8 29.30 72.8 580 4025 1625 4.57 0.00 0.00 0.000
10:18am 201 8 8 39 58 74.0 72.8 29.30 72.8 580 3905 1625 4.49 0.00 0.00 0.000
10:19am 143 6 8 39 57 74.0 72.8 29.30 72.8 580 4025 1625 4.42 0.00 0.00 0.000
10:20am 177 4 8 39 57 74.0 72.8 29.30 72.8 583 4025 1628 4.34 0.00 0.00 0.000
10:21am 206 3 4 39 58 74.0 72.8 29.30 72.8 583 3905 1628 4.27 0.00 0.00 0.000
10:22am 174 4 6 39 56 74.0 72.8 29.30 72.8 583 4148 1628 4.20 0.00 0.00 0.000
10:23am 276 1 6 39 57 74.0 72.8 29.30 72.8 583 4025 1628 4.13 0.00 0.00 0.000
10:24am 220 4 9 39 58 74.0 72.9 29.30 72.9 581 3907 1632 4.16 0.00 0.00 0.000
10:25am 220 1 9 39 57 74.0 72.9 29.30 72.9 581 4027 1632 4.09 0.00 0.00 0.000
10:26am 251 4 4 39 57 74.0 73.0 29.30 73.0 579 4029 1636 4.12 0.00 0.00 0.000
10:27am 229 3 6 39 57 74.0 73.0 29.30 73.0 581 4029 1638 4.05 0.00 0.00 0.000
10:28am 202 2 6 39 57 74.0 73.1 29.30 73.1 579 4030 1642 4.09 0.00 0.00 0.000
10:29am 226 3 7 39 57 73.8 73.1 29.30 73.1 579 4030 1642 4.02 0.00 0.00 0.000
10:30am 225 1 7 39 56 73.8 73.1 29.30 73.1 579 4153 1642 3.95 0.00 0.00 0.000
10:31am 149 2 2 39 58 73.8 73.3 29.30 73.3 579 3913 1655 4.08 0.00 0.00 0.000
10:32am 161 7 7 39 57 73.8 73.4 29.30 73.4 578 4035 1660 4.12 0.00 0.00 0.000
10:33am 135 3 7 39 56 73.8 73.5 29.30 73.5 579 4160 1668 4.15 0.00 0.00 0.000
10:34am 169 5 7 39 56 73.8 73.6 29.30 73.6 577 4162 1672 4.18 0.00 0.00 0.000
10:35am 100 3 7 39 57 73.8 73.8 29.30 73.8 578 4042 1686 4.31 0.00 0.00 0.000
10:36am 177 4 6 39 56 73.8 73.9 29.30 73.9 580 4167 1694 4.33 0.00 0.00 0.000
10:37am 173 4 7 39 56 73.8 74.0 29.30 74.0 580 4168 1701 4.37 0.00 0.00 0.000
10:38am 179 3 7 39 55 73.6 74.0 29.30 74.0 582 4293 1703 4.29 0.00 0.00 0.000
10:39am 158 5 7 39 56 73.6 74.1 29.30 74.1 581 4170 1708 4.32 0.00 0.00 0.000
10:40am 172 3 7 39 55 73.6 74.1 29.30 74.1 580 4295 1707 4.25 0.00 0.00 0.000
10:41am 178 3 5 39 57 73.6 74.2 29.30 74.2 580 4049 1713 4.28 0.00 0.00 0.000
10:42am 251 2 5 39 56 73.6 74.3 29.30 74.3 582 4174 1722 4.31 0.00 0.00 0.000
10:43am 152 3 5 39 55 73.5 74.3 29.30 74.3 582 4299 1722 4.23 0.00 0.00 0.000
10:44am 132 1 5 39 56 73.5 74.3 29.30 74.3 582 4174 1722 4.16 0.00 0.00 0.000
10:45am 237 5 8 39 56 73.5 74.4 29.30 74.4 580 4175 1726 4.19 0.00 0.00 0.000
10:46am 185 8 8 39 55 73.5 74.4 29.30 74.4 581 4300 1727 4.13 0.00 0.00 0.000
10:47am 310 2 8 39 55 73.5 74.3 29.30 74.3 583 4299 1723 3.96 0.00 0.00 0.000
10:48am 210 3 8 39 56 73.5 74.3 29.30 74.3 581 4174 1721 3.89 0.00 0.00 0.000
10:49am 254 2 8 39 55 73.3 74.3 29.30 74.3 581 4299 1721 3.83 0.00 0.00 0.000
10:50am 212 9 9 39 56 73.3 74.3 29.30 74.3 581 4174 1721 3.77 0.00 0.00 0.000
10:51am 248 2 9 39 55 73.3 74.4 29.30 74.4 581 4300 1727 3.80 0.00 0.00 0.000
10:52am 213 2 9 39 56 73.3 74.5 29.30 74.5 581 4177 1733 3.84 0.00 0.00 0.000
10:53am 86 3 9 39 56 73.3 74.5 29.30 74.5 582 4177 1734 3.78 0.00 0.00 0.000
10:54am 254 8 10 39 57 73.3 74.7 29.30 74.7 582 4057 1747 3.91 0.00 0.00 0.000
10:55am 219 3 10 39 55 73.3 74.7 29.30 74.7 582 4306 1747 3.85 0.00 0.00 0.000
10:56am 231 3 5 39 54 73.3 74.8 29.30 74.8 583 4435 1755 3.89 0.00 0.00 0.000
10:57am 184 4 8 39 55 73.3 74.8 29.29 74.8 584 4308 1756 3.82 0.00 0.00 0.000
10:58am 222 3 8 39 54 73.3 74.8 29.29 74.8 585 4435 1758 3.76 0.00 0.00 0.000
10:59am 91 1 8 39 55 73.3 74.7 29.29 74.7 585 4306 1752 3.60 0.00 0.00 0.000
11:00am 202 1 8 39 56 73.3 74.8 29.29 74.8 584 4182 1757 3.63 0.00 0.00 0.000
11:01am 170 1 4 39 55 73.3 74.9 29.29 74.9 585 4309 1764 3.68 0.00 0.00 0.000
11:02am 126 5 5 39 55 73.3 75.0 29.29 75.0 585 4311 1771 3.71 0.00 0.00 0.000
11:03am 153 7 7 39 55 73.3 75.0 29.29 75.0 586 4311 1772 3.65 0.00 0.00 0.000
11:04am 148 7 7 39 54 73.3 75.1 29.29 75.1 586 4440 1778 3.69 0.00 0.00 0.000
11:05am 287 2 7 39 54 73.3 75.1 29.29 75.1 586 4440 1778 3.63 0.00 0.00 0.000
11:06am 196 8 8 39 54 73.3 75.1 29.29 75.1 586 4440 1778 3.57 0.00 0.00 0.000
11:07am 331 2 8 39 55 73.3 75.1 29.29 75.1 586 4313 1778 3.51 0.00 0.00 0.000
11:08am 176 4 8 39 54 73.3 75.1 29.29 75.1 585 4440 1777 3.45 0.00 0.00 0.000
11:09am 247 1 9 39 55 73.3 75.2 29.29 75.2 586 4315 1784 3.50 0.00 0.00 0.000
11:10am 194 2 9 39 54 73.3 75.3 29.29 75.3 586 4444 1791 3.53 0.00 0.00 0.000
11:11am 194 3 6 39 55 73.3 75.3 29.29 75.3 586 4316 1791 3.48 0.00 0.00 0.000
11:12am 168 4 10 39 54 73.3 75.4 29.29 75.4 585 4446 1796 3.52 0.00 0.00 0.000
11:13am 250 3 10 39 54 73.3 75.4 29.29 75.4 585 4446 1796 3.46 0.00 0.00 0.000
11:14am 274 1 10 39 53 73.3 75.4 29.29 75.4 586 4576 1797 3.40 0.00 0.00 0.000
11:15am 191 4 10 39 56 73.3 75.5 29.29 75.5 585 4194 1802 3.45 0.00 0.00 0.000
11:16am 172 9 10 39 54 73.3 75.7 29.29 75.7 585 4451 1815 3.59 0.00 0.00 0.000
11:17am 227 2 10 39 52 73.3 75.6 29.29 75.6 585 4711 1808 3.43 0.00 0.00 0.000
11:18am 234 7 10 39 53 73.3 75.6 29.29 75.6 586 4579 1810 3.37 0.00 0.00 0.000
11:19am 264 1 10 39 52 73.3 75.6 29.29 75.6 585 4711 1808 3.32 0.00 0.00 0.000
11:20am 168 3 10 39 53 73.3 75.6 29.29 75.6 585 4579 1808 3.26 0.00 0.00 0.000
11:21am 319 2 4 39 53 73.3 75.6 29.29 75.6 585 4579 1808 3.21 0.00 0.00 0.000
11:22am 125 1 4 39 53 73.3 75.7 29.29 75.7 586 4581 1816 3.25 0.00 0.00 0.000
11:23am 195 4 8 39 55 73.1 75.8 29.29 75.8 585 4325 1821 3.30 0.00 0.00 0.000
11:24am 152 7 14 39 55 73.1 75.5 29.29 75.5 585 4320 1802 2.94 0.00 0.00 0.000
11:25am 98 2 14 39 56 73.1 75.3 29.29 75.3 585 4191 1790 2.70 0.00 0.00 0.000
11:26am 193 6 8 39 57 73.1 75.1 29.30 75.1 583 4064 1774 2.46 0.00 0.00 0.000
11:27am 220 6 12 39 56 73.1 74.9 29.29 74.9 584 4184 1763 2.22 0.00 0.00 0.000
11:28am 118 2 12 39 57 73.1 74.7 29.29 74.7 584 4057 1749 1.98 0.00 0.00 0.000
11:29am 196 8 12 39 58 73.0 74.7 29.30 74.7 581 3936 1746 1.95 0.00 0.00 0.000
11:30am 159 4 12 39 57 73.0 74.7 29.30 74.7 583 4057 1748 1.92 0.00 0.00 0.000
11:31am 175 8 8 39 57 73.0 74.7 29.30 74.7 582 4057 1747 1.88 0.00 0.00 0.000
11:32am 196 4 10 39 57 73.0 74.6 29.29 74.6 584 4056 1743 1.75 0.00 0.00 0.000
11:33am 91 6 10 39 57 73.0 74.5 29.29 74.5 584 4054 1737 1.63 0.00 0.00 0.000
11:34am 270 4 10 39 57 73.0 74.4 29.29 74.4 584 4052 1732 1.50 0.00 0.00 0.000
11:35am 139 5 10 40 57 73.0 74.4 29.29 74.4 584 4052 1732 1.47 0.00 0.00 0.000
11:36am 212 2 5 39 58 73.0 74.3 29.29 74.3 584 3929 1725 1.35 0.00 0.00 0.000
11:37am 126 3 8 39 57 72.8 74.3 29.29 74.3 584 4051 1724 1.33 0.00 0.00 0.000
11:38am 139 2 8 39 58 72.8 74.3 29.29 74.3 585 3929 1726 1.31 0.00 0.00 0.000
11:39am 250 1 8 39 58 72.8 74.4 29.29 74.4 586 3931 1734 1.38 0.00 0.00 0.000
11:40am 147 1 13 39 57 72.8 74.3 29.29 74.3 585 4051 1726 1.26 0.00 0.00 0.000
11:41am 119 3 7 39 57 72.8 74.3 29.29 74.3 585 4051 1726 1.24 0.00 0.00 0.000
11:42am 163 3 7 39 57 72.8 74.3 29.29 74.3 584 4051 1725 1.22 0.00 0.00 0.000
11:43am 183 6 11 39 57 72.8 74.3 29.29 74.3 584 4051 1725 1.20 0.00 0.00 0.000
11:44am 153 7 11 39 56 72.8 74.1 29.29 74.1 584 4170 1713 0.98 0.00 0.00 0.000
11:45am 171 5 11 39 57 72.8 73.9 29.29 73.9 584 4044 1700 0.77 0.00 0.00 0.000
11:46am 154 6 9 39 57 72.8 73.7 29.29 73.7 584 4040 1686 0.56 0.00 0.00 0.000
11:47am 165 9 9 39 58 72.8 73.6 29.29 73.6 584 3918 1680 0.45 0.00 0.00 0.000
11:48am 168 3 10 39 59 73.0 73.5 29.29 73.5 584 3797 1675 0.34 0.00 0.00 0.000
11:49am 173 8 10 39 59 73.0 73.5 29.29 73.5 584 3797 1675 0.34 0.00 0.00 0.000
11:50am 225 3 10 39 58 73.0 73.6 29.29 73.6 585 3918 1682 0.43 0.00 0.00 0.000
11:51am 164 4 8 39 58 73.0 73.7 29.29 73.7 584 3920 1687 0.52 0.00 0.00 0.000
11:52am 190 4 8 39 58 73.0 73.8 29.29 73.8 584 3921 1692 0.62 0.00 0.00 0.000
11:53am 189 2 8 39 58 73.0 73.9 29.30 73.9 582 3923 1697 0.70 0.00 0.00 0.000
11:54am 166 5 8 39 58 73.0 74.1 29.30 74.1 583 3926 1710 0.89 0.00 0.00 0.000
11:55am 170 9 10 39 57 73.0 74.2 29.30 74.2 581 4049 1714 0.97 0.00 0.00 0.000
11:56am 202 2 9 39 57 73.0 74.2 29.30 74.2 582 4049 1716 0.96 0.00 0.00 0.000
11:57am 347 2 9 39 57 73.0 74.2 29.29 74.2 584 4049 1719 0.94 0.00 0.00 0.000
11:58am 191 0 9 39 59 73.0 74.3 29.30 74.3 583 3810 1723 1.03 0.00 0.00 0.000
11:59am 177 4 9 39 59 73.0 74.5 29.30 74.5 582 3813 1734 1.21 0.00 0.00 0.000
12:00pm 211 4 9 39 57 73.0 74.8 29.30 74.8 583 4059 1755 1.49 0.00 0.00 0.000
12:01pm 179 6 12 39 56 73.0 74.7 29.30 74.7 583 4180 1748 1.36 0.00 0.00 0.000
12:02pm 106 7 12 39 57 73.0 74.6 29.29 74.6 584 4056 1743 1.24 0.00 0.00 0.000
12:03pm 157 9 12 39 56 73.0 74.4 29.30 74.4 582 4175 1728 1.02 0.00 0.00 0.000
12:04pm 194 7 12 39 56 72.8 74.3 29.30 74.3 582 4174 1722 0.91 0.00 0.00 0.000
12:05pm 154 7 12 39 57 72.8 74.2 29.29 74.2 584 4049 1718 0.79 0.00 0.00 0.000
12:06pm 226 2 8 39 57 72.8 74.2 29.30 74.2 581 4049 1714 0.78 0.00 0.00 0.000
12:07pm 158 10 10 39 57 72.8 74.2 29.30 74.2 581 4049 1714 0.77 0.00 0.00 0.000
12:08pm 236 4 10 39 57 72.8 74.0 29.29 74.0 584 4045 1705 0.56 0.00 0.00 0.000
12:09pm 213 2 10 39 57 72.8 73.9 29.30 73.9 583 4044 1698 0.45 0.00 0.00 0.000
12:10pm 226 4 12 39 58 72.8 73.9 29.29 73.9 584 3923 1699 0.44 0.00 0.00 0.000
12:11pm 238 2 9 39 58 72.8 73.9 29.29 73.9 584 3923 1700 0.43 0.00 0.00 0.000
12:12pm 197 1 9 39 59 72.8 74.0 29.29 74.0 584 3805 1706 0.52 0.00 0.00 0.000
12:13pm 160 3 9 39 59 72.6 74.2 29.30 74.2 583 3808 1717 0.71 0.00 0.00 0.000
12:14pm 163 11 14 39 58 72.6 74.4 29.30 74.4 580 3931 1726 0.90 0.00 0.00 0.000
12:15pm 152 7 14 39 57 72.6 74.3 29.29 74.3 584 4051 1725 0.79 0.00 0.00 0.000
12:16pm 170 8 14 39 57 72.6 74.2 29.30 74.2 583 4049 1717 0.67 0.00 0.00 0.000
12:17pm 175 14 14 39 57 72.6 74.0 29.29 74.0 584 4045 1705 0.46 0.00 0.00 0.000
12:18pm 160 8 14 39 57 72.6 73.7 29.29 73.7 584 4040 1687 0.16 0.00 0.00 0.000
12:19pm 150 3 14 39 57 72.4 73.6 29.29 73.6 585 4039 1682 0.06 0.00 0.00 0.000
12:20pm 140 4 14 39 58 72.4 73.6 29.29 73.6 584 3918 1680 0.06 0.00 0.00 0.000
12:21pm 241 5 11 39 58 72.4 73.6 29.29 73.6 584 3918 1681 0.06 0.00 0.00 0.000
12:22pm 260 2 11 39 59 72.4 73.8 29.29 73.8 585 3802 1695 0.25 0.00 0.00 0.000
12:23pm 166 2 11 39 59 72.4 73.9 29.29 73.9 584 3804 1700 0.35 0.00 0.00 0.000
12:24pm 189 6 14 39 57 72.4 74.1 29.29 74.1 585 4047 1714 0.54 0.00 0.00 0.000
12:25pm 159 11 14 39 57 72.4 74.0 29.29 74.0 584 4045 1706 0.43 0.00 0.00 0.000
12:26pm 134 4 11 39 57 72.4 73.9 29.29 73.9 585 4044 1701 0.33 0.00 0.00 0.000
12:27pm 183 7 11 39 57 72.4 73.8 29.29 73.8 586 4042 1696 0.22 0.00 0.00 0.000
12:28pm 203 4 12 39 59 72.4 73.8 29.29 73.8 585 3802 1695 0.22 0.00 0.00 0.000
12:29pm 175 8 12 39 58 72.4 73.9 29.29 73.9 586 3923 1702 0.31 0.00 0.00 0.000
12:30pm 131 5 12 39 58 72.4 73.9 29.29 73.9 586 3923 1702 0.31 0.00 0.00 0.000
12:31pm 164 5 7 39 58 72.4 74.0 29.29 74.0 585 3924 1707 0.40 0.00 0.00 0.000
12:32pm 153 5 7 39 58 72.4 74.2 29.29 74.2 586 3928 1721 0.59 0.00 0.00 0.000
12:33pm 164 4 7 39 59 72.4 74.4 29.29 74.4 586 3811 1734 0.78 0.00 0.00 0.000
12:34pm 179 7 10 39 58 72.4 74.5 29.29 74.5 586 3933 1740 0.87 0.00 0.00 0.000
12:35pm 160 16 16 39 57 72.4 74.6 29.29 74.6 586 4056 1746 0.95 0.00 0.00 0.000
12:36pm 141 6 18 39 57 72.4 74.5 29.29 74.5 586 4054 1740 0.84 0.00 0.00 0.000
12:37pm 122 3 18 39 58 72.4 74.6 29.29 74.6 586 3934 1746 0.92 0.00 0.00 0.000
12:38pm 172 4 18 39 57 72.4 74.7 29.29 74.7 587 4057 1754 1.01 0.00 0.00 0.000
12:39pm 171 2 18 39 58 72.4 74.8 29.29 74.8 588 3937 1761 1.09 0.00 0.00 0.000
12:40pm 158 6 18 39 58 72.4 75.1 29.29 75.1 587 3942 1779 1.37 0.00 0.00 0.000
12:41pm 141 9 9 39 57 72.4 75.3 29.29 75.3 588 4067 1793 1.55 0.00 0.00 0.000
12:42pm 185 7 9 39 57 72.4 75.5 29.29 75.5 589 4071 1807 1.72 0.00 0.00 0.000
12:43pm 246 1 9 39 56 72.6 75.5 29.29 75.5 591 4194 1809 1.69 0.00 0.00 0.000
12:44pm 170 9 11 39 58 72.6 75.6 29.29 75.6 589 3950 1813 1.76 0.00 0.00 0.000
12:45pm 168 9 11 39 57 72.6 75.8 29.29 75.8 589 4076 1826 1.93 0.00 0.00 0.000
12:46pm 160 10 10 39 56 72.6 75.7 29.29 75.7 590 4198 1820 1.80 0.00 0.00 0.000
12:47pm 181 7 10 39 56 72.6 75.6 29.29 75.6 591 4196 1815 1.67 0.00 0.00 0.000
12:48pm 260 1 10 39 57 72.6 75.6 29.29 75.6 592 4072 1816 1.64 0.00 0.00 0.000
12:49pm 147 7 10 39 57 72.6 75.7 29.29 75.7 591 4074 1822 1.71 0.00 0.00 0.000
12:50pm 107 0 10 39 57 72.6 75.7 29.28 75.7 593 4074 1824 1.69 0.00 0.00 0.000
12:51pm 195 7 11 39 57 72.4 75.8 29.29 75.8 592 4076 1829 1.76 0.00 0.00 0.000
12:52pm 102 11 11 39 57 72.4 75.8 29.29 75.8 592 4076 1829 1.73 0.00 0.00 0.000
12:53pm 161 5 11 39 57 72.4 75.6 29.29 75.6 592 4072 1816 1.50 0.00 0.00 0.000
12:54pm 150 6 11 39 56 72.4 75.5 29.29 75.5 592 4194 1810 1.38 0.00 0.00 0.000
12:55pm 167 8 11 39 58 72.4 75.5 29.29 75.5 592 3949 1810 1.35 0.00 0.00 0.000
12:56pm 164 5 11 39 56 72.4 75.3 29.28 75.3 593 4191 1799 1.13 0.00 0.00 0.000
12:57pm 141 6 11 39 57 72.4 75.3 29.29 75.3 591 4067 1796 1.12 0.00 0.00 0.000
12:58pm 273 4 11 39 57 72.4 75.3 29.29 75.3 592 4067 1797 1.10 0.00 0.00 0.000
12:59pm 237 4 11 39 57 72.3 75.4 29.29 75.4 592 4069 1804 1.18 0.00 0.00 0.000
1:00pm 199 4 11 39 56 72.3 75.4 29.29 75.4 591 4193 1803 1.16 0.00 0.00 0.000
1:01pm 173 6 7 39 56 72.3 75.4 29.29 75.4 592 4193 1804 1.14 0.00 0.00 0.000
1:02pm 129 10 10 39 57 72.3 75.4 29.29 75.4 590 4069 1801 1.12 0.00 0.00 0.000
1:03pm 167 6 10 39 56 72.3 75.4 29.28 75.4 594 4193 1806 1.10 0.00 0.00 0.000
1:04pm 160 4 10 39 57 72.3 75.4 29.28 75.4 595 4069 1807 1.08 0.00 0.00 0.000
1:05pm 148 6 11 39 55 72.3 75.5 29.29 75.5 591 4320 1809 1.16 0.00 0.00 0.000
1:06pm 193 9 13 39 55 72.1 75.5 29.28 75.5 597 4320 1817 1.14 0.00 0.00 0.000
1:07pm 143 4 13 39 56 72.1 75.4 29.28 75.4 598 4193 1812 1.03 0.00 0.00 0.000
1:08pm 171 10 13 39 57 72.1 75.4 29.28 75.4 599 4069 1813 1.01 0.00 0.00 0.000
1:09pm 185 6 13 39 58 72.1 75.5 29.28 75.5 600 3949 1820 1.09 0.00 0.00 0.000
1:10pm 172 10 13 39 57 72.1 75.6 29.28 75.6 596 4072 1822 1.17 0.00 0.00 0.000
1:11pm 316 4 15 39 56 72.1 75.5 29.28 75.5 599 4194 1819 1.05 0.00 0.00 0.000
1:12pm 137 6 15 39 57 72.1 75.5 29.28 75.5 600 4071 1820 1.04 0.00 0.00 0.000
1:13pm 199 8 15 39 56 72.1 75.4 29.28 75.4 601 4193 1815 0.92 0.00 0.00 0.000
1:14pm 185 6 15 39 57 72.1 75.4 29.28 75.4 600 4069 1814 0.91 0.00 0.00 0.000
1:15pm 174 11 15 39 58 72.1 75.5 29.28 75.5 600 3949 1820 0.99 0.00 0.00 0.000
1:16pm 216 7 13 39 57 72.1 75.5 29.28 75.5 601 4071 1821 0.97 0.00 0.00 0.000
1:17pm 167 12 13 39 56 72.1 75.4 29.27 75.4 602 4193 1816 0.86 0.00 0.00 0.000
1:18pm 134 8 13 39 57 72.1 75.3 29.28 75.3 601 4067 1809 0.74 0.00 0.00 0.000
1:19pm 137 5 13 39 57 72.1 75.2 29.28 75.2 600 4066 1801 0.63 0.00 0.00 0.000
1:20pm 191 8 13 39 57 72.1 75.2 29.28 75.2 600 4066 1801 0.62 0.00 0.00 0.000
1:21pm 305 3 11 39 56 72.1 75.1 29.28 75.1 601 4187 1796 0.51 0.00 0.00 0.000
1:22pm 231 6 11 39 57 72.1 75.1 29.28 75.1 601 4064 1796 0.51 0.00 0.00 0.000
1:23pm 131 11 12 39 57 72.3 75.2 29.28 75.2 601 4066 1802 0.60 0.00 0.00 0.000
1:24pm 199 4 12 39 57 72.3 75.1 29.28 75.1 601 4064 1796 0.49 0.00 0.00 0.000
1:25pm 210 4 12 39 57 72.3 75.2 29.28 75.2 601 4066 1802 0.58 0.00 0.00 0.000
1:26pm 166 9 12 39 57 72.3 75.3 29.27 75.3 602 4067 1810 0.67 0.00 0.00 0.000
1:27pm 193 3 12 39 57 72.3 75.4 29.28 75.4 601 4069 1815 0.76 0.00 0.00 0.000
1:28pm 216 7 12 39 57 72.3 75.5 29.28 75.5 601 4071 1821 0.84 0.00 0.00 0.000
1:29pm 173 4 12 39 57 72.3 75.6 29.27 75.6 602 4072 1829 0.93 0.00 0.00 0.000
1:30pm 222 5 12 39 57 72.3 75.8 29.27 75.8 602 4076 1841 1.11 0.00 0.00 0.000
1:31pm 153 10 16 39 56 72.3 75.9 29.28 75.9 601 4201 1847 1.19 0.00 0.00 0.000
1:32pm 181 6 16 39 55 72.3 75.9 29.27 75.9 604 4327 1850 1.17 0.00 0.00 0.000
1:33pm 218 3 16 39 57 72.3 75.9 29.27 75.9 603 4077 1849 1.15 0.00 0.00 0.000
1:34pm 141 10 16 39 56 72.3 76.0 29.27 76.0 603 4203 1855 1.23 0.00 0.00 0.000
1:35pm 214 9 16 39 56 72.3 75.9 29.27 75.9 607 4201 1853 1.11 0.00 0.00 0.000
1:36pm 151 7 13 39 56 72.3 75.9 29.27 75.9 603 4201 1849 1.09 0.00 0.00 0.000
1:37pm 164 3 13 39 56 72.3 75.8 29.27 75.8 605 4199 1845 0.98 0.00 0.00 0.000
1:38pm 191 7 13 39 57 72.3 75.9 29.27 75.9 604 4077 1850 1.06 0.00 0.00 0.000
1:39pm 155 8 13 39 56 72.3 76.0 29.27 76.0 607 4203 1860 1.14 0.00 0.00 0.000
1:40pm 181 4 13 39 56 72.3 75.9 29.27 75.9 606 4201 1852 1.02 0.00 0.00 0.000
1:41pm 202 7 14 39 57 72.3 75.8 29.27 75.8 607 4076 1847 0.91 0.00 0.00 0.000
1:42pm 166 8 14 39 57 72.3 75.9 29.27 75.9 609 4077 1856 0.99 0.00 0.00 0.000
1:43pm 212 9 14 39 57 72.1 75.9 29.27 75.9 609 4077 1856 0.98 0.00 0.00 0.000
1:44pm 251 6 17 39 56 72.1 76.0 29.27 76.0 608 4203 1861 1.06 0.00 0.00 0.000
1:45pm 133 6 17 39 56 72.1 75.9 29.27 75.9 609 4201 1856 0.94 0.00 0.00 0.000
1:46pm 250 2 9 39 56 72.1 76.0 29.26 76.0 612 4203 1866 1.03 0.00 0.00 0.000
1:47pm 168 9 11 39 56 72.1 76.1 29.26 76.1 613 4205 1874 1.11 0.00 0.00 0.000
1:48pm 123 5 11 39 56 72.1 76.2 29.27 76.2 610 4206 1877 1.19 0.00 0.00 0.000
1:49pm 142 3 11 39 56 72.1 76.4 29.26 76.4 613 4210 1893 1.37 0.00 0.00 0.000
1:50pm 191 6 11 39 56 71.9 76.6 29.26 76.6 611 4213 1903 1.54 0.00 0.00 0.000
1:51pm 233 10 18 39 54 71.9 76.8 29.26 76.8 612 4471 1917 1.72 0.00 0.00 0.000
1:52pm 170 8 18 39 55 71.9 76.9 29.27 76.9 609 4345 1919 1.79 0.00 0.00 0.000
1:53pm 179 4 18 39 55 71.9 76.9 29.27 76.9 610 4345 1921 1.76 0.00 0.00 0.000
1:54pm 272 8 18 39 54 71.9 76.9 29.26 76.9 611 4473 1922 1.73 0.00 0.00 0.000
1:55pm 149 9 18 39 54 71.9 76.9 29.27 76.9 610 4473 1921 1.70 0.00 0.00 0.000
1:56pm 239 3 9 39 54 71.9 76.9 29.27 76.9 609 4473 1920 1.67 0.00 0.00 0.000
1:57pm 185 13 16 39 54 71.9 76.9 29.27 76.9 607 4473 1916 1.65 0.00 0.00 0.000
1:58pm 183 16 19 39 55 71.9 76.7 29.27 76.7 603 4341 1899 1.42 0.00 0.00 0.000
1:59pm 166 9 19 39 55 71.9 76.3 29.26 76.3 612 4334 1885 1.00 0.00 0.00 0.000
2:00pm 181 11 19 39 55 71.9 76.2 29.27 76.2 608 4332 1873 0.88 0.00 0.00 0.000
2:01pm 268 5 11 39 56 71.9 76.1 29.27 76.1 610 4205 1870 0.77 0.00 0.00 0.000
2:02pm 173 12 12 39 56 71.9 76.2 29.27 76.2 609 4206 1875 0.86 0.00 0.00 0.000
2:03pm 156 9 12 39 56 71.9 76.2 29.26 76.2 611 4206 1878 0.84 0.00 0.00 0.000
2:04pm 152 11 17 41 56 71.9 76.2 29.26 76.2 613 4206 1880 0.83 0.00 0.00 0.000
2:05pm 161 8 17 39 56 71.9 76.1 29.26 76.1 613 4205 1874 0.71 0.00 0.00 0.000
2:06pm 182 2 9 39 56 72.1 76.1 29.26 76.1 613 4205 1874 0.70 0.00 0.00 0.000
2:07pm 197 9 9 39 57 72.1 76.2 29.26 76.2 612 4082 1879 0.79 0.00 0.00 0.000
2:08pm 160 5 15 39 56 72.1 76.3 29.26 76.3 614 4208 1888 0.88 0.00 0.00 0.000
2:09pm 282 8 15 39 56 72.1 76.5 29.26 76.5 612 4212 1898 1.06 0.00 0.00 0.000
2:10pm 158 4 15 39 56 72.1 76.7 29.26 76.7 615 4215 1914 1.24 0.00 0.00 0.000
2:11pm 139 2 9 39 55 72.1 76.7 29.26 76.7 616 4341 1915 1.22 0.00 0.00 0.000
2:12pm 228 4 14 39 55 72.1 76.9 29.26 76.9 615 4345 1926 1.40 0.00 0.00 0.000
2:13pm 179 13 14 39 54 72.1 76.9 29.26 76.9 617 4473 1929 1.37 0.00 0.00 0.000
2:14pm 155 8 20 39 54 72.1 76.9 29.26 76.9 616 4473 1928 1.35 0.00 0.00 0.000
2:15pm 256 3 20 39 54 72.1 76.7 29.26 76.7 617 4470 1916 1.13 0.00 0.00 0.000
2:16pm 251 2 9 39 55 72.1 76.9 29.26 76.9 617 4345 1929 1.31 0.00 0.00 0.000
2:17pm 187 2 11 39 54 72.1 76.9 29.26 76.9 618 4473 1930 1.29 0.00 0.00 0.000
2:18pm 133 6 11 39 56 72.1 77.2 29.26 77.2 618 4224 1949 1.56 0.00 0.00 0.000
2:19pm 166 4 11 39 55 72.1 77.3 29.26 77.3 619 4352 1956 1.64 0.00 0.00 0.000
2:20pm 220 11 12 39 55 72.1 77.4 29.26 77.4 617 4354 1960 1.71 0.00 0.00 0.000
2:21pm 116 2 11 39 54 72.1 77.6 29.26 77.6 617 4486 1973 1.88 0.00 0.00 0.000
2:22pm 228 4 11 39 55 72.1 77.7 29.26 77.7 617 4359 1979 1.95 0.00 0.00 0.000
2:23pm 174 15 15 39 53 71.9 77.7 29.26 77.7 617 4619 1979 1.91 0.00 0.00 0.000
2:24pm 153 7 15 39 53 71.9 77.5 29.26 77.5 617 4615 1966 1.68 0.00 0.00 0.000
2:25pm 200 11 16 39 53 71.9 77.3 29.26 77.3 620 4611 1957 1.46 0.00 0.00 0.000
2:26pm 177 6 11 39 54 71.9 77.2 29.26 77.2 618 4479 1949 1.33 0.00 0.00 0.000
2:27pm 224 15 18 39 53 71.9 77.2 29.26 77.2 617 4609 1948 1.31 0.00 0.00 0.000
2:28pm 91 2 18 39 53 71.9 77.1 29.26 77.1 617 4608 1941 1.19 0.00 0.00 0.000
2:29pm 226 4 18 39 53 71.9 77.1 29.26 77.1 617 4608 1941 1.17 0.00 0.00 0.000
2:30pm 242 4 18 39 53 71.9 77.1 29.26 77.1 620 4608 1945 1.15 0.00 0.00 0.000
2:31pm 221 8 16 39 53 71.9 77.0 29.26 77.0 617 4606 1935 1.03 0.00 0.00 0.000
2:32pm 100 2 16 39 53 71.8 76.9 29.26 76.9 620 4604 1932 0.92 0.00 0.00 0.000
2:33pm 128 5 16 39 53 71.8 76.9 29.25 76.9 622 4604 1936 0.90 0.00 0.00 0.000
2:34pm 171 9 16 39 54 71.8 76.9 29.26 76.9 618 4473 1930 0.89 0.00 0.00 0.000
2:35pm 195 7 21 39 53 71.8 76.8 29.25 76.8 622 4602 1929 0.77 0.00 0.00 0.000
2:36pm 136 5 11 39 53 71.8 76.8 29.25 76.8 623 4602 1930 0.76 0.00 0.00 0.000
2:37pm 190 11 12 39 53 71.8 76.7 29.25 76.7 625 4600 1926 0.65 0.00 0.00 0.000
2:38pm 180 10 12 39 53 71.8 76.7 29.25 76.7 627 4600 1929 0.64 0.00 0.00 0.000
2:39pm 153 10 19 39 53 71.8 76.7 29.25 76.7 624 4600 1925 0.63 0.00 0.00 0.000
2:40pm 195 2 19 39 53 71.9 76.6 29.25 76.6 629 4598 1925 0.52 0.00 0.00 0.000
2:41pm 154 7 14 39 54 71.9 76.7 29.25 76.7 627 4470 1929 0.61 0.00 0.00 0.000
2:42pm 124 2 14 39 54 71.9 76.9 29.25 76.9 629 4473 1943 0.80 0.00 0.00 0.000
2:43pm 322 4 14 39 54 71.9 77.0 29.25 77.0 630 4475 1951 0.89 0.00 0.00 0.000
2:44pm 192 3 14 39 53 71.9 77.2 29.25 77.2 630 4609 1963 1.07 0.00 0.00 0.000
2:45pm 165 4 14 39 53 71.9 77.3 29.25 77.3 630 4611 1970 1.15 0.00 0.00 0.000
2:46pm 242 5 12 39 53 71.9 77.4 29.25 77.4 629 4613 1975 1.23 0.00 0.00 0.000
2:47pm 202 5 14 39 52 71.9 77.4 29.25 77.4 630 4746 1976 1.21 0.00 0.00 0.000
2:48pm 177 7 14 39 53 71.9 77.5 29.25 77.5 629 4615 1981 1.29 0.00 0.00 0.000
2:49pm 162 12 16 39 52 71.9 77.4 29.25 77.4 629 4746 1975 1.17 0.00 0.00 0.000
2:50pm 237 5 16 39 52 71.9 77.4 29.25 77.4 629 4746 1975 1.15 0.00 0.00 0.000
2:51pm 118 2 5 39 53 71.9 77.4 29.24 77.4 631 4613 1977 1.13 0.00 0.00 0.000
2:52pm 141 7 15 39 53 71.9 77.5 29.25 77.5 630 4615 1982 1.21 0.00 0.00 0.000
2:53pm 153 5 20 39 51 71.9 77.6 29.24 77.6 631 4885 1990 1.29 0.00 0.00 0.000
2:54pm 210 4 20 39 52 71.9 77.6 29.24 77.6 631 4750 1990 1.27 0.00 0.00 0.000
2:55pm 191 12 20 39 51 71.9 77.7 29.24 77.7 632 4887 1997 1.35 0.00 0.00 0.000
2:56pm 195 4 14 39 51 71.9 77.7 29.24 77.7 631 4887 1996 1.33 0.00 0.00 0.000
2:57pm 132 4 14 39 51 71.9 77.8 29.24 77.8 631 4889 2002 1.40 0.00 0.00 0.000
2:58pm 259 6 14 39 51 71.9 77.9 29.24 77.9 631 4891 2008 1.48 0.00 0.00 0.000
2:59pm 174 3 14 39 51 71.9 78.0 29.24 78.0 631 4893 2015 1.55 0.00 0.00 0.000
3:00pm 270 5 14 39 51 71.9 78.1 29.24 78.1 631 4895 2021 1.63 0.00 0.00 0.000
3:01pm 120 4 6 39 51 71.9 78.2 29.24 78.2 631 4897 2027 1.70 0.00 0.00 0.000
3:02pm 127 6 15 39 49 71.9 78.2 29.24 78.2 631 5176 2027 1.67 0.00 0.00 0.000
3:03pm 193 10 15 39 49 71.8 78.1 29.24 78.1 632 5174 2022 1.54 0.00 0.00 0.000
3:04pm 151 7 15 39 50 71.8 78.0 29.24 78.0 631 5031 2015 1.42 0.00 0.00 0.000
3:05pm 162 9 15 39 51 71.8 78.0 29.24 78.0 631 4893 2015 1.39 0.00 0.00 0.000
3:06pm 186 1 11 39 50 71.8 78.0 29.24 78.0 634 5031 2018 1.37 0.00 0.00 0.000
3:07pm 196 8 11 39 50 71.8 78.2 29.24 78.2 633 5035 2030 1.55 0.00 0.00 0.000
3:08pm 158 5 19 39 49 71.8 78.1 29.24 78.1 633 5174 2023 1.42 0.00 0.00 0.000
3:09pm 160 3 19 39 49 71.8 78.0 29.24 78.0 633 5172 2017 1.30 0.00 0.00 0.000
3:10pm 166 1 19 39 50 71.8 78.0 29.24 78.0 634 5031 2018 1.28 0.00 0.00 0.000
3:11pm 204 9 9 39 51 71.8 78.0 29.24 78.0 634 4893 2019 1.26 0.00 0.00 0.000
3:12pm 125 5 13 39 50 71.6 78.2 29.24 78.2 639 5035 2037 1.43 0.00 0.00 0.000
3:13pm 130 4 13 39 50 71.6 78.2 29.24 78.2 638 5035 2036 1.41 0.00 0.00 0.000
3:14pm 167 4 17 39 50 71.6 78.3 29.24 78.3 638 5037 2043 1.49 0.00 0.00 0.000
3:15pm 142 6 17 39 49 71.6 78.3 29.23 78.3 640 5178 2045 1.46 0.00 0.00 0.000
3:16pm 126 3 13 39 49 71.6 78.4 29.24 78.4 638 5180 2049 1.54 0.00 0.00 0.000
3:17pm 181 5 13 39 50 71.6 78.3 29.24 78.3 639 5037 2044 1.41 0.00 0.00 0.000
3:18pm 180 13 13 39 50 71.6 78.4 29.24 78.4 635 5039 2045 1.49 0.00 0.00 0.000
3:19pm 254 6 13 39 49 71.6 78.4 29.24 78.4 638 5180 2049 1.46 0.00 0.00 0.000
3:20pm 181 6 13 39 50 71.6 78.4 29.24 78.4 639 5039 2050 1.44 0.00 0.00 0.000
3:21pm 162 4 7 39 50 71.6 78.4 29.24 78.4 639 5039 2050 1.42 0.00 0.00 0.000
3:22pm 170 9 17 39 49 71.6 78.5 29.24 78.5 637 5182 2054 1.49 0.00 0.00 0.000
3:23pm 220 9 17 39 49 71.6 78.4 29.24 78.4 638 5180 2049 1.37 0.00 0.00 0.000
3:24pm 147 4 17 39 49 71.6 78.5 29.23 78.5 641 5182 2058 1.44 0.00 0.00 0.000
3:25pm 204 2 17 39 49 71.6 78.5 29.23 78.5 644 5182 2062 1.42 0.00 0.00 0.000
3:26pm 177 11 14 39 48 71.8 78.5 29.23 78.5 642 5325 2060 1.39 0.00 0.00 0.000
3:27pm 155 9 14 39 48 71.8 78.5 29.23 78.5 643 5325 2061 1.37 0.00 0.00 0.000
3:28pm 212 3 14 39 48 71.8 78.5 29.23 78.5 644 5325 2062 1.35 0.00 0.00 0.000
3:29pm 172 4 14 39 49 71.8 78.5 29.23 78.5 646 5182 2064 1.33 0.00 0.00 0.000
3:30pm 225 3 14 39 49 71.8 78.7 29.23 78.7 645 5186 2076 1.50 0.00 0.00 0.000
3:31pm 145 3 10 39 50 71.8 78.9 29.23 78.9 644 5050 2087 1.68 0.00 0.00 0.000
3:32pm 144 6 10 39 48 71.8 79.0 29.23 79.0 645 5336 2094 1.75 0.00 0.00 0.000
3:33pm 184 3 10 39 48 71.8 79.0 29.23 79.0 645 5336 2094 1.72 0.00 0.00 0.000
3:34pm 211 10 13 39 48 71.8 79.0 29.23 79.0 644 5336 2093 1.69 0.00 0.00 0.000
3:35pm 141 5 13 39 49 71.8 79.0 29.23 79.0 646 5193 2097 1.66 0.00 0.00 0.000
3:36pm 164 9 11 39 49 71.8 79.1 29.23 79.1 645 5195 2101 1.73 0.00 0.00 0.000
3:37pm 148 7 18 39 48 71.8 79.0 29.23 79.0 645 5336 2094 1.61 0.00 0.00 0.000
3:38pm 169 4 18 39 49 71.6 78.9 29.23 78.9 645 5191 2088 1.48 0.00 0.00 0.000
3:39pm 218 7 18 39 49 71.6 78.8 29.23 78.8 646 5188 2083 1.36 0.00 0.00 0.000
3:40pm 151 7 18 39 49 71.6 78.7 29.23 78.7 645 5186 2076 1.24 0.00 0.00 0.000
3:41pm 285 8 15 39 49 71.6 78.7 29.23 78.7 646 5186 2078 1.21 0.00 0.00 0.000
3:42pm 168 10 15 39 49 71.6 78.7 29.23 78.7 646 5186 2078 1.20 0.00 0.00 0.000
3:43pm 223 5 15 39 49 71.6 78.7 29.23 78.7 645 5186 2076 1.18 0.00 0.00 0.000
3:44pm 135 2 15 39 49 71.6 78.7 29.23 78.7 646 5186 2078 1.16 0.00 0.00 0.000
3:45pm 124 5 15 39 50 71.6 78.7 29.23 78.7 646 5046 2078 1.14 0.00 0.00 0.000
3:46pm 158 7 11 39 50 71.6 78.7 29.23 78.7 646 5046 2078 1.12 0.00 0.00 0.000
3:47pm 281 2 11 39 50 71.4 78.7 29.23 78.7 646 5046 2078 1.10 0.00 0.00 0.000
3:48pm 151 15 15 39 49 71.4 78.7 29.23 78.7 646 5186 2078 1.08 0.00 0.00 0.000
3:49pm 161 6 16 39 49 71.4 78.5 29.23 78.5 646 5182 2065 0.86 0.00 0.00 0.000
3:50pm 212 8 16 39 50 71.4 78.4 29.23 78.4 647 5039 2060 0.75 0.00 0.00 0.000
3:51pm 237 4 8 39 50 71.4 78.4 29.23 78.4 647 5039 2060 0.74 0.00 0.00 0.000
3:52pm 108 11 12 39 50 71.4 78.4 29.23 78.4 647 5039 2060 0.73 0.00 0.00 0.000
3:53pm 142 7 13 39 50 71.4 78.4 29.23 78.4 646 5039 2059 0.71 0.00 0.00 0.000
3:54pm 168 21 21 39 50 71.4 78.4 29.23 78.4 645 5039 2057 0.70 0.00 0.00 0.000
3:55pm 161 6 21 39 50 71.2 78.3 29.23 78.3 646 5037 2053 0.59 0.00 0.00 0.000
3:56pm 143 14 18 39 50 71.2 78.2 29.23 78.2 646 5035 2046 0.48 0.00 0.00 0.000
3:57pm 180 9 18 39 50 71.2 78.1 29.23 78.1 646 5033 2040 0.37 0.00 0.00 0.000
3:58pm 166 4 18 39 50 71.2 78.0 29.23 78.0 648 5031 2036 0.27 0.00 0.00 0.000
3:59pm 210 5 18 39 50 71.2 77.9 29.22 77.9 649 5029 2031 0.16 0.00 0.00 0.000
4:00pm 202 6 18 39 50 71.2 77.9 29.22 77.9 649 5029 2031 0.16 0.00 0.00 0.000
4:01pm 203 12 16 39 51 71.2 77.9 29.22 77.9 650 4891 2032 0.16 0.00 0.00 0.000
4:02pm 180 7 17 39 50 71.2 77.8 29.22 77.8 649 5027 2025 0.06 0.00 0.00 0.000
4:03pm 164 9 17 39 50 71.1 77.7 29.23 77.7 648 5025 2017 -0.04 0.00 0.00 0.000
4:04pm 185 12 17 39 51 71.1 77.6 29.23 77.6 648 4885 2011 -0.14 0.00 0.00 0.000
4:05pm 196 5 17 39 51 71.1 77.5 29.23 77.5 648 4883 2005 -0.24 0.00 0.00 0.000
4:06pm 174 10 13 39 51 71.1 77.6 29.22 77.6 649 4885 2012 -0.14 0.00 0.00 0.000
4:07pm 192 3 13 39 51 71.1 77.6 29.22 77.6 650 4885 2013 -0.13 0.00 0.00 0.000
4:08pm 172 8 13 39 52 71.1 77.7 29.22 77.7 650 4752 2020 -0.03 0.00 0.00 0.000
4:09pm 169 7 13 39 51 71.1 77.7 29.22 77.7 652 4887 2022 -0.03 0.00 0.00 0.000
4:10pm 187 9 14 39 51 71.1 77.7 29.22 77.7 650 4887 2020 -0.03 0.00 0.00 0.000
4:11pm 99 3 15 39 51 70.9 77.6 29.22 77.6 651 4885 2015 -0.13 0.00 0.00 0.000
4:12pm 110 10 15 39 52 70.9 77.6 29.22 77.6 649 4750 2012 -0.13 0.00 0.00 0.000
4:13pm 150 6 15 39 52 70.9 77.7 29.22 77.7 651 4752 2021 -0.03 0.00 0.00 0.000
4:14pm 165 14 15 39 52 70.9 77.7 29.22 77.7 649 4752 2019 -0.03 0.00 0.00 0.000
4:15pm 282 6 15 39 52 70.9 77.7 29.22 77.7 649 4752 2019 -0.03 0.00 0.00 0.000
4:16pm 266 7 8 39 51 70.9 77.7 29.22 77.7 649 4887 2019 -0.03 0.00 0.00 0.000
4:17pm 158 1 14 39 52 70.9 77.9 29.23 77.9 646 4756 2028 0.17 0.00 0.00 0.000
4:18pm 167 16 19 39 51 70.9 78.0 29.23 78.0 646 4893 2034 0.27 0.00 0.00 0.000
4:19pm 357 3 24 39 50 70.7 78.0 29.22 78.0 652 5031 2041 0.26 0.00 0.00 0.000
4:20pm 183 14 24 39 49 70.7 78.0 29.22 78.0 650 5172 2038 0.26 0.00 0.00 0.000
4:21pm 263 3 15 39 49 70.7 78.0 29.22 78.0 650 5172 2038 0.26 0.00 0.00 0.000
4:22pm 143 7 15 39 50 70.7 78.0 29.22 78.0 650 5031 2038 0.25 0.00 0.00 0.000
4:23pm 168 13 19 39 50 70.7 78.1 29.22 78.1 655 5033 2050 0.35 0.00 0.00 0.000
4:24pm 139 12 19 39 50 70.7 78.0 29.23 78.0 647 5031 2035 0.24 0.00 0.00 0.000
4:25pm 167 10 19 39 50 70.7 77.9 29.22 77.9 654 5029 2037 0.14 0.00 0.00 0.000
4:26pm 169 13 13 39 50 70.7 77.9 29.22 77.9 653 5029 2036 0.14 0.00 0.00 0.000
4:27pm 183 0 13 39 51 70.7 77.9 29.22 77.9 652 4891 2034 0.13 0.00 0.00 0.000
4:28pm 202 8 17 39 51 70.7 77.8 29.22 77.8 655 4889 2032 0.03 0.00 0.00 0.000
4:29pm 175 7 17 39 50 70.7 77.8 29.22 77.8 651 5027 2027 0.03 0.00 0.00 0.000
4:30pm 205 5 17 39 50 70.7 77.7 29.22 77.7 653 5025 2023 -0.07 0.00 0.00 0.000
4:31pm 150 9 13 39 50 70.7 77.7 29.22 77.7 654 5025 2024 -0.07 0.00 0.00 0.000
4:32pm 145 4 13 39 50 70.7 77.7 29.22 77.7 656 5025 2026 -0.07 0.00 0.00 0.000
4:33pm 160 9 13 41 51 70.7 77.7 29.22 77.7 655 4887 2025 -0.06 0.00 0.00 0.000
4:34pm 206 3 17 39 50 70.7 77.7 29.22 77.7 657 5025 2028 -0.06 0.00 0.00 0.000
4:35pm 168 6 17 39 50 70.7 77.8 29.22 77.8 655 5027 2032 0.04 0.00 0.00 0.000
4:36pm 194 7 9 39 51 70.7 77.8 29.22 77.8 652 4889 2028 0.04 0.00 0.00 0.000
4:37pm 310 5 17 39 50 70.7 77.9 29.21 77.9 659 5029 2042 0.14 0.00 0.00 0.000
4:38pm 167 3 17 39 50 70.7 78.0 29.22 78.0 657 5031 2046 0.23 0.00 0.00 0.000
4:39pm 166 6 17 39 51 70.9 78.1 29.22 78.1 654 4895 2049 0.33 0.00 0.00 0.000
4:40pm 300 7 17 39 50 70.9 78.1 29.22 78.1 657 5033 2053 0.32 0.00 0.00 0.000
4:41pm 235 5 7 39 51 70.9 78.2 29.22 78.2 655 4897 2057 0.42 0.00 0.00 0.000
4:42pm 186 5 7 39 51 70.9 78.2 29.22 78.2 655 4897 2057 0.41 0.00 0.00 0.000
4:43pm 226 2 8 39 51 70.9 78.3 29.22 78.3 656 4899 2064 0.50 0.00 0.00 0.000
4:44pm 177 6 8 39 52 70.9 78.4 29.22 78.4 656 4766 2070 0.59 0.00 0.00 0.000
4:45pm 170 2 8 39 51 70.9 78.4 29.22 78.4 658 4901 2073 0.58 0.00 0.00 0.000
4:46pm 170 5 5 39 52 70.7 78.5 29.22 78.5 654 4768 2074 0.67 0.00 0.00 0.000
4:47pm 189 10 11 39 51 70.7 78.7 29.22 78.7 653 4907 2086 0.86 0.00 0.00 0.000
4:48pm 216 4 11 39 51 70.7 78.7 29.22 78.7 655 4907 2088 0.84 0.00 0.00 0.000
4:49pm 147 10 11 39 52 70.7 78.7 29.22 78.7 654 4771 2087 0.83 0.00 0.00 0.000
4:50pm 166 2 11 39 51 70.7 78.6 29.22 78.6 651 4905 2077 0.72 0.00 0.00 0.000
4:51pm 177 12 13 39 52 70.7 78.5 29.22 78.5 651 4768 2071 0.61 0.00 0.00 0.000
4:52pm 202 5 13 39 51 70.7 78.5 29.22 78.5 654 4903 2074 0.60 0.00 0.00 0.000
4:53pm 220 1 13 39 51 70.7 78.4 29.22 78.4 650 4901 2064 0.49 0.00 0.00 0.000
4:54pm 202 4 13 39 51 70.7 78.4 29.22 78.4 649 4901 2062 0.48 0.00 0.00 0.000
4:55pm 183 2 13 39 51 70.7 78.4 29.22 78.4 653 4901 2067 0.47 0.00 0.00 0.000
4:56pm 286 3 6 39 52 70.7 78.4 29.22 78.4 651 4766 2065 0.46 0.00 0.00 0.000
4:57pm 157 5 9 39 51 70.6 78.5 29.22 78.5 653 4903 2073 0.56 0.00 0.00 0.000
4:58pm 90 4 16 39 51 70.6 78.4 29.22 78.4 655 4901 2069 0.45 0.00 0.00 0.000
4:59pm 144 7 16 39 51 70.6 78.3 29.22 78.3 657 4899 2065 0.34 0.00 0.00 0.000
5:00pm 177 14 16 39 51 70.6 78.2 29.22 78.2 657 4897 2059 0.24 0.00 0.00 0.000
5:01pm 185 9 15 39 51 70.6 78.0 29.22 78.0 656 4893 2045 0.03 0.00 0.00 0.000
5:02pm 202 9 15 39 52 70.6 77.9 29.21 77.9 659 4756 2042 -0.07 0.00 0.00 0.000
5:03pm 265 4 15 39 51 70.6 77.7 29.22 77.7 655 4887 2025 -0.26 0.00 0.00 0.000
5:04pm 194 10 15 39 52 70.6 77.7 29.22 77.7 651 4752 2021 -0.26 0.00 0.00 0.000
5:05pm 154 7 15 39 52 70.6 77.6 29.22 77.6 655 4750 2019 -0.35 0.00 0.00 0.000
5:06pm 212 5 9 39 52 70.6 77.4 29.22 77.4 654 4746 2005 -0.55 0.00 0.00 0.000
5:07pm 154 2 9 39 52 70.6 77.4 29.22 77.4 657 4746 2009 -0.54 0.00 0.00 0.000
5:08pm 199 14 14 39 53 70.6 77.4 29.22 77.4 656 4613 2008 -0.53 0.00 0.00 0.000
5:09pm 310 8 14 39 52 70.6 77.3 29.22 77.3 656 4744 2001 -0.62 0.00 0.00 0.000
5:10pm 186 10 14 39 52 70.6 77.3 29.22 77.3 654 4744 1999 -0.61 0.00 0.00 0.000
5:11pm 158 7 15 39 52 70.7 77.2 29.22 77.2 654 4742 1993 -0.70 0.00 0.00 0.000
5:12pm 221 3 15 39 53 70.7 77.1 29.22 77.1 656 4608 1989 -0.78 0.00 0.00 0.000
5:13pm 211 4 15 39 53 70.7 77.1 29.22 77.1 656 4608 1989 -0.77 0.00 0.00 0.000
5:14pm 153 8 15 39 53 70.7 77.1 29.22 77.1 656 4608 1989 -0.76 0.00 0.00 0.000
5:15pm 178 8 15 39 52 70.7 77.1 29.22 77.1 657 4740 1990 -0.74 0.00 0.00 0.000
5:16pm 183 8 8 39 52 70.7 77.1 29.22 77.1 658 4740 1991 -0.73 0.00 0.00 0.000
5:17pm 162 11 17 39 52 70.7 77.1 29.21 77.1 659 4740 1993 -0.72 0.00 0.00 0.000
5:18pm 270 4 17 39 53 70.7 77.1 29.22 77.1 657 4608 1990 -0.71 0.00 0.00 0.000
5:19pm 168 7 17 39 53 70.7 77.1 29.22 77.1 656 4608 1989 -0.70 0.00 0.00 0.000
5:20pm 150 7 17 39 53 70.7 77.2 29.22 77.2 654 4609 1993 -0.59 0.00 0.00 0.000
5:21pm 184 3 10 39 52 70.7 77.2 29.22 77.2 654 4742 1993 -0.58 0.00 0.00 0.000
5:22pm 163 6 10 39 52 70.7 77.3 29.22 77.3 655 4744 2000 -0.47 0.00 0.00 0.000
5:23pm 163 5 10 39 52 70.7 77.3 29.22 77.3 657 4744 2003 -0.46 0.00 0.00 0.000
5:24pm 180 5 11 39 51 70.7 77.3 29.21 77.3 659 4879 2005 -0.45 0.00 0.00 0.000
5:25pm 193 5 11 39 52 70.7 77.4 29.22 77.4 658 4746 2010 -0.35 0.00 0.00 0.000
5:26pm 154 8 14 39 52 70.7 77.4 29.21 77.4 659 4746 2011 -0.34 0.00 0.00 0.000
5:27pm 204 7 14 39 52 70.7 77.5 29.22 77.5 657 4748 2015 -0.24 0.00 0.00 0.000
5:28pm 177 7 14 39 51 70.7 77.5 29.22 77.5 654 4883 2012 -0.23 0.00 0.00 0.000
5:29pm 175 3 14 39 50 70.7 77.5 29.22 77.5 654 5021 2012 -0.23 0.00 0.00 0.000
5:30pm 223 9 14 39 51 70.7 77.6 29.22 77.6 653 4885 2017 -0.12 0.00 0.00 0.000
5:31pm 182 6 9 39 51 70.7 77.6 29.22 77.6 656 4885 2020 -0.12 0.00 0.00 0.000
5:32pm 211 5 10 39 51 70.7 77.7 29.22 77.7 653 4887 2023 -0.02 0.00 0.00 0.000
5:33pm 152 5 12 39 51 70.7 77.7 29.22 77.7 653 4887 2023 -0.02 0.00 0.00 0.000
5:34pm 156 6 12 39 50 70.7 77.7 29.22 77.7 652 5025 2022 -0.02 0.00 0.00 0.000
5:35pm 129 8 12 39 50 70.6 77.8 29.22 77.8 649 5027 2025 0.08 0.00 0.00 0.000
5:36pm 199 5 12 39 50 70.6 77.8 29.22 77.8 654 5027 2030 0.08 0.00 0.00 0.000
5:37pm 206 3 12 39 50 70.6 77.9 29.22 77.9 654 5029 2037 0.17 0.00 0.00 0.000
5:38pm 206 8 12 39 51 70.6 77.9 29.22 77.9 654 4891 2037 0.17 0.00 0.00 0.000
5:39pm 187 2 12 39 49 70.6 77.9 29.22 77.9 652 5170 2034 0.17 0.00 0.00 0.000
5:40pm 174 5 12 39 49 70.6 78.0 29.22 78.0 650 5172 2038 0.26 0.00 0.00 0.000
5:41pm 194 2 6 39 49 70.6 78.1 29.22 78.1 651 5174 2046 0.36 0.00 0.00 0.000
5:42pm 194 0 6 39 50 70.6 78.1 29.22 78.1 651 5033 2046 0.35 0.00 0.00 0.000
5:43pm 174 10 10 39 50 70.6 78.2 29.23 78.2 648 5035 2049 0.44 0.00 0.00 0.000
5:44pm 175 2 10 39 48 70.6 78.3 29.22 78.3 650 5321 2057 0.53 0.00 0.00 0.000
5:45pm 218 5 11 39 49 70.6 78.4 29.22 78.4 651 5180 2065 0.62 0.00 0.00 0.000
5:46pm 197 4 5 39 49 70.6 78.4 29.22 78.4 652 5180 2066 0.61 0.00 0.00 0.000
5:47pm 189 5 13 39 48 70.6 78.4 29.22 78.4 654 5323 2068 0.60 0.00 0.00 0.000
5:48pm 188 4 13 39 49 70.6 78.4 29.22 78.4 656 5180 2070 0.59 0.00 0.00 0.000
5:49pm 140 6 13 39 48 70.6 78.4 29.22 78.4 658 5323 2073 0.58 0.00 0.00 0.000
5:50pm 220 3 13 39 47 70.6 78.4 29.22 78.4 654 5469 2068 0.57 0.00 0.00 0.000
5:51pm 220 2 3 39 49 70.6 78.4 29.22 78.4 655 5180 2069 0.56 0.00 0.00 0.000
5:52pm 177 3 4 39 49 70.6 78.4 29.22 78.4 655 5180 2069 0.55 0.00 0.00 0.000
5:53pm 177 5 5 39 49 70.6 78.4 29.22 78.4 653 5180 2067 0.55 0.00 0.00 0.000
5:54pm 160 12 13 39 48 70.6 78.4 29.22 78.4 653 5323 2067 0.54 0.00 0.00 0.000
5:55pm 213 3 13 39 48 70.7 78.4 29.22 78.4 652 5323 2066 0.53 0.00 0.00 0.000
5:56pm 282 1 5 39 48 70.7 78.4 29.22 78.4 651 5323 2065 0.52 0.00 0.00 0.000
5:57pm 158 3 5 39 48 70.7 78.3 29.22 78.3 650 5321 2057 0.41 0.00 0.00 0.000
5:58pm 248 3 11 39 47 70.7 78.3 29.22 78.3 653 5467 2061 0.40 0.00 0.00 0.000
5:59pm 237 7 11 39 47 70.7 78.3 29.22 78.3 651 5467 2058 0.40 0.00 0.00 0.000
6:00pm 177 4 11 39 47 70.7 78.3 29.22 78.3 651 5467 2058 0.39 0.00 0.00 0.000
6:01pm 195 2 7 39 47 70.7 78.3 29.23 78.3 648 5467 2055 0.38 0.00 0.00 0.000
6:02pm 77 5 7 39 47 70.7 78.3 29.22 78.3 652 5467 2060 0.38 0.00 0.00 0.000
6:03pm 183 4 9 39 47 70.7 78.3 29.22 78.3 650 5467 2057 0.37 0.00 0.00 0.000
6:04pm 141 3 9 39 47 70.7 78.3 29.22 78.3 650 5467 2057 0.36 0.00 0.00 0.000
6:05pm 173 1 9 39 47 70.7 78.2 29.22 78.2 653 5464 2054 0.26 0.00 0.00 0.000
6:06pm 157 4 7 39 47 70.7 78.2 29.22 78.2 655 5464 2057 0.25 0.00 0.00 0.000
6:07pm 133 7 11 39 43 70.7 78.3 29.22 78.3 650 6078 2057 0.35 0.00 0.00 0.000
6:08pm 231 6 11 39 41 70.7 78.4 29.22 78.4 650 6406 2064 0.44 0.00 0.00 0.000
6:09pm 332 0 11 39 44 70.7 78.6 29.22 78.6 657 5928 2084 0.63 0.00 0.00 0.000
6:10pm 219 3 11 39 45 70.7 78.6 29.22 78.6 656 5774 2083 0.62 0.00 0.00 0.000
6:11pm 152 7 7 39 43 70.7 78.7 29.22 78.7 655 6088 2088 0.71 0.00 0.00 0.000
6:12pm 268 5 10 39 42 70.7 78.7 29.22 78.7 657 6249 2090 0.70 0.00 0.00 0.000
6:13pm 185 10 12 39 42 70.7 78.7 29.22 78.7 652 6249 2085 0.69 0.00 0.00 0.000
6:14pm 237 4 12 39 39 70.6 78.8 29.23 78.8 648 6756 2086 0.78 0.00 0.00 0.000
6:15pm 287 10 22 39 41 70.6 78.8 29.23 78.8 647 6416 2085 0.76 0.00 0.00 0.000
6:16pm 211 5 12 39 38 70.6 78.9 29.21 78.9 659 6934 2106 0.85 0.00 0.00 0.000
6:17pm 243 3 12 39 37 70.6 79.0 29.22 79.0 655 7117 2107 0.93 0.00 0.00 0.000
6:18pm 198 5 12 39 38 70.6 79.1 29.21 79.1 659 6940 2117 1.02 0.00 0.00 0.000
6:19pm 289 4 12 39 38 70.6 79.1 29.21 79.1 659 6940 2119 1.00 0.00 0.00 0.000
6:20pm 209 6 12 39 38 70.6 79.2 29.22 79.2 656 6943 2120 1.08 0.00 0.00 0.000
6:21pm 194 2 8 39 38 70.6 79.2 29.22 79.2 654 6943 2118 1.07 0.00 0.00 0.000
6:22pm 228 4 8 39 38 70.6 79.2 29.22 79.2 655 6943 2119 1.05 0.00 0.00 0.000
6:23pm 244 5 14 39 36 70.6 79.2 29.22 79.2 656 7307 2120 1.03 0.00 0.00 0.000
6:24pm 222 10 14 39 39 70.6 79.2 29.22 79.2 656 6767 2120 1.01 0.00 0.00 0.000
6:25pm 202 10 16 39 37 70.6 79.2 29.22 79.2 655 7123 2119 1.00 0.00 0.00 0.000
6:26pm 189 8 13 39 38 70.7 79.3 29.22 79.3 657 6945 2128 1.08 0.00 0.00 0.000
6:27pm 211 5 13 39 37 70.7 79.2 29.22 79.2 656 7123 2120 0.96 0.00 0.00 0.000
6:28pm 209 1 13 39 38 70.7 79.2 29.22 79.2 656 6943 2120 0.95 0.00 0.00 0.000
6:29pm 334 2 13 39 38 70.7 79.2 29.22 79.2 658 6943 2123 0.93 0.00 0.00 0.000
6:30pm 199 3 13 39 38 70.7 79.1 29.22 79.1 657 6940 2115 0.82 0.00 0.00 0.000
6:31pm 208 4 5 39 38 70.7 79.1 29.22 79.1 655 6940 2113 0.80 0.00 0.00 0.000
6:32pm 275 6 12 39 36 70.7 79.0 29.22 79.0 651 7301 2102 0.69 0.00 0.00 0.000
6:33pm 179 8 12 39 36 70.7 79.0 29.22 79.0 655 7301 2107 0.68 0.00 0.00 0.000
6:34pm 199 4 12 39 37 70.7 79.1 29.22 79.1 654 7120 2112 0.77 0.00 0.00 0.000
6:35pm 183 3 12 39 36 70.7 79.2 29.22 79.2 650 7307 2114 0.85 0.00 0.00 0.000
6:36pm 154 2 5 39 37 70.7 79.2 29.22 79.2 652 7123 2116 0.84 0.00 0.00 0.000
6:37pm 154 1 5 39 37 70.7 79.1 29.22 79.1 649 7120 2106 0.73 0.00 0.00 0.000
6:38pm 131 4 5 39 37 70.7 79.1 29.22 79.1 652 7120 2110 0.71 0.00 0.00 0.000
6:39pm 158 2 5 39 38 70.7 79.0 29.22 79.0 651 6937 2102 0.60 0.00 0.00 0.000
6:40pm 213 1 5 39 38 70.9 79.0 29.22 79.0 651 6937 2102 0.59 0.00 0.00 0.000
6:41pm 220 3 9 39 38 70.9 78.8 29.22 78.8 653 6931 2092 0.38 0.00 0.00 0.000
6:42pm 243 5 9 39 38 70.9 78.8 29.22 78.8 653 6931 2092 0.38 0.00 0.00 0.000
6:43pm 128 9 14 39 37 70.9 78.8 29.22 78.8 653 7111 2092 0.37 0.00 0.00 0.000
6:44pm 186 5 14 39 37 70.9 78.8 29.22 78.8 654 7111 2093 0.37 0.00 0.00 0.000
6:45pm 191 3 14 39 36 70.9 78.9 29.22 78.9 658 7298 2104 0.46 0.00 0.00 0.000
6:46pm 212 7 12 39 37 70.9 78.9 29.22 78.9 658 7114 2104 0.45 0.00 0.00 0.000
6:47pm 187 4 12 39 37 70.9 78.9 29.22 78.9 657 7114 2103 0.45 0.00 0.00 0.000
6:48pm 279 2 12 39 39 70.9 78.9 29.22 78.9 652 6758 2097 0.44 0.00 0.00 0.000
6:49pm 160 6 12 39 38 70.9 78.8 29.22 78.8 652 6931 2091 0.33 0.00 0.00 0.000
6:50pm 164 9 12 39 45 71.1 78.5 29.22 78.5 650 5771 2070 0.03 0.00 0.00 0.000
6:51pm 183 6 11 40 47 70.9 78.0 29.22 78.0 650 5460 2038 -0.47 0.00 0.00 0.000
6:52pm 176 3 11 39 47 70.9 77.6 29.22 77.6 650 5451 2013 -0.86 0.00 0.00 0.000
6:53pm 193 1 11 39 47 70.9 77.4 29.22 77.4 651 5447 2002 -1.04 0.00 0.00 0.000
6:54pm 178 3 11 39 48 70.9 77.2 29.22 77.2 649 5297 1987 -1.22 0.00 0.00 0.000
6:55pm 195 4 11 39 49 70.9 76.9 29.23 76.9 647 5148 1966 -1.50 0.00 0.00 0.000
6:56pm 83 4 7 40 50 70.9 76.6 29.22 76.6 652 5003 1953 -1.77 0.00 0.00 0.000
6:57pm 90 1 7 39 51 70.9 76.4 29.22 76.4 650 4861 1938 -1.94 0.00 0.00 0.000
6:58pm 177 7 7 39 51 70.9 76.2 29.22 76.2 649 4857 1924 -2.10 0.00 0.00 0.000
6:59pm 143 5 7 39 51 70.9 76.0 29.22 76.0 650 4853 1913 -2.27 0.00 0.00 0.000
7:00pm 144 2 7 39 52 70.9 75.8 29.23 75.8 648 4715 1898 -2.43 0.00 0.00 0.000
7:01pm 180 9 10 39 52 70.9 75.6 29.23 75.6 647 4711 1884 -2.58 0.00 0.00 0.000
7:02pm 197 8 10 39 52 70.9 75.4 29.23 75.4 648 4707 1873 -2.74 0.00 0.00 0.000
7:03pm 174 5 10 39 53 70.7 75.1 29.23 75.1 648 4570 1854 -2.99 0.00 0.00 0.000
7:04pm 166 3 10 39 53 70.7 75.0 29.23 75.0 648 4568 1848 -3.04 0.00 0.00 0.000
7:05pm 178 4 10 39 53 70.7 74.8 29.23 74.8 648 4564 1835 -3.19 0.00 0.00 0.000
7:06pm 164 4 6 39 54 70.7 74.7 29.23 74.7 647 4433 1828 -3.24 0.00 0.00 0.000
7:07pm 189 3 6 39 54 70.7 74.6 29.23 74.6 646 4431 1820 -3.28 0.00 0.00 0.000
7:08pm 188 2 6 39 54 70.7 74.5 29.23 74.5 647 4429 1815 -3.32 0.00 0.00 0.000
7:09pm 179 4 6 40 54 70.7 74.4 29.23 74.4 648 4428 1810 -3.37 0.00 0.00 0.000
7:10pm 188 3 8 39 54 70.7 74.2 29.23 74.2 647 4424 1796 -3.51 0.00 0.00 0.000
7:11pm 157 1 7 40 55 70.7 74.1 29.23 74.1 648 4295 1791 -3.56 0.00 0.00 0.000
7:12pm 183 3 7 39 55 70.7 74.1 29.22 74.1 649 4295 1792 -3.50 0.00 0.00 0.000
7:13pm 164 5 7 39 55 70.7 73.9 29.22 73.9 651 4292 1782 -3.64 0.00 0.00 0.000
7:14pm 197 2 8 39 55 70.7 73.8 29.22 73.8 651 4290 1775 -3.68 0.00 0.00 0.000
7:15pm 195 2 8 39 55 70.7 73.8 29.22 73.8 653 4290 1778 -3.62 0.00 0.00 0.000
7:16pm 203 5 7 39 55 70.9 73.7 29.22 73.7 650 4288 1768 -3.66 0.00 0.00 0.000
7:17pm 145 7 8 39 55 70.9 73.6 29.22 73.6 651 4286 1763 -3.69 0.00 0.00 0.000
7:18pm 160 10 12 40 55 70.9 73.6 29.22 73.6 649 4286 1760 -3.63 0.00 0.00 0.000
7:19pm 186 8 12 39 55 70.9 73.5 29.22 73.5 651 4285 1756 -3.67 0.00 0.00 0.000
7:20pm 189 5 12 39 56 70.9 73.3 29.22 73.3 650 4156 1742 -3.81 0.00 0.00 0.000
7:21pm 224 2 5 39 56 70.9 73.3 29.22 73.3 649 4156 1741 -3.75 0.00 0.00 0.000
7:22pm 229 2 7 39 56 70.9 73.3 29.22 73.3 649 4156 1741 -3.69 0.00 0.00 0.000
7:23pm 213 4 8 39 56 70.9 73.3 29.23 73.3 648 4156 1740 -3.63 0.00 0.00 0.000
7:24pm 208 7 10 39 56 70.9 73.2 29.22 73.2 650 4155 1736 -3.66 0.00 0.00 0.000
7:25pm 154 4 10 39 56 70.9 73.1 29.22 73.1 649 4153 1729 -3.70 0.00 0.00 0.000
7:26pm 196 3 4 40 56 70.9 73.1 29.22 73.1 650 4153 1730 -3.64 0.00 0.00 0.000
7:27pm 199 1 9 39 56 70.9 73.1 29.23 73.1 647 4153 1726 -3.58 0.00 0.00 0.000
7:28pm 147 4 9 39 56 70.9 73.0 29.23 73.0 648 4151 1721 -3.62 0.00 0.00 0.000
7:29pm 236 2 9 39 56 71.1 73.0 29.23 73.0 648 4151 1721 -3.56 0.00 0.00 0.000
7:30pm 190 5 9 40 56 71.1 72.9 29.23 72.9 648 4150 1715 -3.60 0.00 0.00 0.000
7:31pm 150 6 9 40 56 71.1 72.9 29.23 72.9 647 4150 1714 -3.54 0.00 0.00 0.000
7:32pm 216 3 9 40 56 71.1 72.8 29.23 72.8 648 4148 1709 -3.58 0.00 0.00 0.000
7:33pm 172 1 9 39 56 71.1 72.8 29.23 72.8 648 4148 1709 -3.52 0.00 0.00 0.000
7:34pm 176 1 9 39 57 71.1 72.7 29.23 72.7 647 4024 1701 -3.56 0.00 0.00 0.000
7:35pm 144 7 9 39 57 71.1 72.7 29.23 72.7 647 4024 1701 -3.51 0.00 0.00 0.000
7:36pm 163 6 7 39 57 71.1 72.6 29.23 72.6 646 4022 1694 -3.55 0.00 0.00 0.000
7:37pm 256 4 7 39 57 71.1 72.6 29.23 72.6 646 4022 1694 -3.49 0.00 0.00 0.000
7:38pm 125 4 7 39 58 71.1 72.5 29.23 72.5 646 3900 1687 -3.53 0.00 0.00 0.000
7:39pm 159 4 7 39 58 71.1 72.5 29.23 72.5 646 3900 1687 -3.47 0.00 0.00 0.000
7:40pm 199 5 7 39 58 71.2 72.4 29.23 72.4 646 3899 1681 -3.51 0.00 0.00 0.000
7:41pm 232 4 7 40 58 71.2 72.5 29.23 72.5 646 3900 1687 -3.35 0.00 0.00 0.000
7:42pm 176 4 7 39 58 71.2 72.3 29.23 72.3 646 3897 1673 -3.50 0.00 0.00 0.000
7:43pm 187 3 13 39 58 71.2 72.3 29.23 72.3 646 3897 1673 -3.44 0.00 0.00 0.000
7:44pm 226 1 13 39 58 71.2 72.3 29.23 72.3 646 3897 1673 -3.38 0.00 0.00 0.000
7:45pm 177 1 13 39 58 71.2 72.3 29.23 72.3 646 3897 1673 -3.33 0.00 0.00 0.000
7:46pm 167 1 8 40 58 71.2 72.2 29.23 72.2 645 3895 1666 -3.37 0.00 0.00 0.000
7:47pm 178 3 8 39 59 71.2 72.2 29.23 72.2 645 3777 1666 -3.32 0.00 0.00 0.000
7:48pm 260 4 8 39 58 71.2 72.2 29.23 72.2 645 3895 1666 -3.26 0.00 0.00 0.000
7:49pm 193 9 13 40 59 71.2 72.0 29.23 72.0 644 3774 1652 -3.40 0.00 0.00 0.000
7:50pm 168 8 13 40 58 71.2 72.0 29.23 72.0 644 3892 1652 -3.35 0.00 0.00 0.000
7:51pm 198 3 9 39 59 71.2 72.0 29.23 72.0 645 3774 1653 -3.29 0.00 0.00 0.000
7:52pm 182 1 9 39 59 71.2 72.0 29.23 72.0 645 3774 1653 -3.24 0.00 0.00 0.000
7:53pm 157 2 9 39 59 71.2 71.9 29.23 71.9 644 3772 1646 -3.28 0.00 0.00 0.000
7:54pm 165 4 9 40 59 71.2 72.0 29.23 72.0 644 3774 1652 -3.13 0.00 0.00 0.000
7:55pm 197 2 10 40 59 71.2 71.9 29.23 71.9 644 3772 1646 -3.18 0.00 0.00 0.000
7:56pm 168 5 6 39 59 71.2 71.9 29.23 71.9 642 3772 1643 -3.13 0.00 0.00 0.000
7:57pm 144 3 8 39 59 71.2 71.8 29.23 71.8 644 3771 1639 -3.17 0.00 0.00 0.000
7:58pm 268 6 8 40 60 71.2 71.7 29.23 71.7 644 3653 1633 -3.22 0.00 0.00 0.000
7:59pm 176 2 8 40 60 71.2 71.7 29.23 71.7 642 3653 1631 -3.17 0.00 0.00 0.000
8:00pm 164 5 8 39 60 71.2 71.7 29.23 71.7 642 3653 1631 -3.11 0.00 0.00 0.000
8:01pm 189 3 5 39 60 71.2 71.7 29.23 71.7 641 3653 1630 -3.06 0.00 0.00 0.000
8:02pm 190 4 5 40 60 71.2 71.6 29.23 71.6 642 3651 1624 -3.11 0.00 0.00 0.000
8:03pm 206 4 6 39 60 71.2 71.5 29.23 71.5 640 3650 1616 -3.16 0.00 0.00 0.000
8:04pm 160 8 8 39 60 71.2 71.5 29.23 71.5 640 3650 1616 -3.11 0.00 0.00 0.000
8:05pm 143 4 10 40 60 71.2 71.4 29.23 71.4 640 3648 1609 -3.15 0.00 0.00 0.000
8:06pm 112 3 5 40 61 71.2 71.4 29.24 71.4 637 3534 1606 -3.10 0.00 0.00 0.000
8:07pm 193 3 8 39 61 71.2 71.4 29.24 71.4 636 3534 1605 -3.05 0.00 0.00 0.000
8:08pm 192 0 8 40 61 71.2 71.3 29.24 71.3 637 3532 1600 -3.10 0.00 0.00 0.000
8:09pm 168 7 8 40 61 71.2 71.3 29.24 71.3 637 3532 1600 -3.05 0.00 0.00 0.000
8:10pm 222 7 8 40 61 71.2 71.2 29.24 71.2 636 3531 1592 -3.10 0.00 0.00 0.000
8:11pm 219 6 10 40 61 71.2 71.2 29.24 71.2 634 3531 1590 -3.04 0.00 0.00 0.000
8:12pm 216 1 10 40 61 71.2 71.2 29.24 71.2 634 3531 1590 -3.00 0.00 0.00 0.000
8:13pm 202 6 10 40 61 71.2 71.1 29.24 71.1 634 3529 1583 -3.04 0.00 0.00 0.000
8:14pm 168 4 10 40 61 71.2 71.0 29.24 71.0 634 3528 1577 -3.09 0.00 0.00 0.000
8:15pm 194 5 10 40 61 71.2 71.0 29.24 71.0 635 3528 1578 -3.04 0.00 0.00 0.000
8:16pm 185 9 10 40 62 71.2 71.0 29.24 71.0 636 3415 1579 -2.99 0.00 0.00 0.000
8:17pm 168 5 10 40 61 71.2 70.9 29.24 70.9 635 3526 1572 -3.04 0.00 0.00 0.000
8:18pm 156 1 10 40 62 71.2 70.9 29.24 70.9 637 3414 1574 -2.99 0.00 0.00 0.000
8:19pm 218 1 10 40 62 71.2 70.8 29.24 70.8 636 3412 1567 -3.04 0.00 0.00 0.000
8:20pm 184 4 10 40 62 71.2 70.8 29.24 70.8 636 3412 1567 -2.99 0.00 0.00 0.000
8:21pm 174 6 6 40 62 71.4 70.7 29.24 70.7 636 3411 1560 -3.04 0.00 0.00 0.000
8:22pm 214 3 6 40 62 71.4 70.7 29.24 70.7 636 3411 1560 -2.99 0.00 0.00 0.000
8:23pm 197 2 6 40 62 71.4 70.7 29.24 70.7 635 3411 1559 -2.94 0.00 0.00 0.000
8:24pm 247 4 6 40 62 71.4 70.6 29.24 70.6 635 3409 1553 -2.99 0.00 0.00 0.000
8:25pm 246 2 6 40 63 71.4 70.6 29.24 70.6 636 3298 1554 -2.94 0.00 0.00 0.000
8:26pm 186 2 3 40 63 71.4 70.5 29.24 70.5 635 3297 1546 -2.99 0.00 0.00 0.000
8:27pm 181 9 9 40 63 71.4 70.4 29.24 70.4 634 3296 1539 -3.04 0.00 0.00 0.000
8:28pm 227 4 9 40 63 71.4 70.4 29.24 70.4 635 3296 1540 -2.99 0.00 0.00 0.000
8:29pm 189 2 9 40 63 71.4 70.3 29.24 70.3 635 3294 1534 -3.04 0.00 0.00 0.000
8:30pm 189 0 9 40 63 71.4 70.2 29.24 70.2 635 3293 1527 -3.09 0.00 0.00 0.000
8:31pm 186 4 6 40 63 71.4 70.2 29.24 70.2 634 3293 1526 -3.04 0.00 0.00 0.000
8:32pm 241 1 6 40 63 71.4 70.1 29.24 70.1 634 3291 1520 -3.09 0.00 0.00 0.000
8:33pm 223 2 6 40 63 71.6 70.1 29.24 70.1 634 3291 1520 -3.03 0.00 0.00 0.000
8:34pm 223 0 6 40 63 71.6 70.1 29.24 70.1 634 3291 1520 -2.98 0.00 0.00 0.000
8:35pm 162 2 6 40 64 71.6 70.0 29.24 70.0 634 3181 1512 -3.04 0.00 0.00 0.000
8:36pm 171 3 3 40 64 71.6 70.0 29.24 70.0 634 3181 1512 -2.99 0.00 0.00 0.000
8:37pm 185 2 4 40 64 71.6 69.9 29.24 69.9 633 3180 1505 -3.03 0.00 0.00 0.000
8:38pm 157 4 4 40 64 71.6 69.8 29.24 69.8 634 3178 1499 -3.08 0.00 0.00 0.000
8:39pm 243 5 5 40 64 71.6 69.7 29.24 69.7 633 3177 1492 -3.13 0.00 0.00 0.000
8:40pm 193 1 6 40 64 71.6 69.7 29.24 69.7 633 3177 1492 -3.08 0.00 0.00 0.000
8:41pm 208 2 3 39 64 71.6 69.6 29.24 69.6 633 3176 1486 -3.13 0.00 0.00 0.000
8:42pm 163 7 8 40 64 71.6 69.6 29.24 69.6 633 3176 1486 -3.08 0.00 0.00 0.000
8:43pm 155 2 8 40 64 71.6 69.5 29.24 69.5 633 3174 1479 -3.12 0.00 0.00 0.000
8:44pm 218 3 8 40 65 71.6 69.5 29.24 69.5 633 3067 1479 -3.07 0.00 0.00 0.000
8:45pm 175 3 8 40 65 71.8 69.4 29.24 69.4 633 3066 1473 -3.12 0.00 0.00 0.000
8:46pm 166 2 3 40 65 71.8 69.4 29.24 69.4 633 3066 1473 -3.07 0.00 0.00 0.000
8:47pm 197 7 7 40 65 71.8 69.4 29.24 69.4 633 3066 1473 -3.02 0.00 0.00 0.000
8:48pm 222 6 9 40 65 71.8 69.3 29.24 69.3 633 3064 1466 -3.07 0.00 0.00 0.000
8:49pm 201 1 9 40 65 71.8 69.4 29.24 69.4 633 3066 1473 -2.92 0.00 0.00 0.000
8:50pm 201 2 9 40 65 71.8 69.4 29.24 69.4 632 3066 1472 -2.87 0.00 0.00 0.000
8:51pm 210 5 5 40 65 71.8 69.4 29.24 69.4 632 3066 1472 -2.82 0.00 0.00 0.000
8:52pm 144 1 5 40 65 71.8 69.4 29.24 69.4 632 3066 1472 -2.78 0.00 0.00 0.000
8:53pm 138 3 5 40 65 71.6 69.3 29.24 69.3 632 3064 1465 -2.83 0.00 0.00 0.000
8:54pm 195 2 5 40 65 71.6 69.3 29.24 69.3 632 3064 1465 -2.78 0.00 0.00 0.000
8:55pm 237 3 5 40 65 71.6 69.2 29.24 69.2 632 3063 1459 -2.83 0.00 0.00 0.000
8:56pm 224 2 8 40 65 71.6 69.2 29.24 69.2 632 3063 1459 -2.79 0.00 0.00 0.000
8:57pm 224 2 8 40 66 71.6 69.2 29.24 69.2 632 2957 1459 -2.74 0.00 0.00 0.000
8:58pm 224 1 8 40 66 71.6 69.1 29.24 69.1 632 2956 1452 -2.79 0.00 0.00 0.000
8:59pm 224 2 8 40 66 71.6 69.0 29.24 69.0 632 2955 1446 -2.85 0.00 0.00 0.000
9:00pm 184 2 8 40 66 71.6 69.0 29.24 69.0 632 2955 1446 -2.80 0.00 0.00 0.000
9:01pm 193 3 3 40 66 71.6 68.9 29.24 68.9 632 2953 1440 -2.85 0.00 0.00 0.000
9:02pm 189 6 10 40 66 71.6 68.9 29.24 68.9 631 2953 1439 -2.81 0.00 0.00 0.000
9:03pm 197 3 10 40 66 71.6 68.9 29.24 68.9 631 2953 1439 -2.76 0.00 0.00 0.000
9:04pm 184 2 10 40 66 71.6 68.9 29.24 68.9 631 2953 1439 -2.71 0.00 0.00 0.000
9:05pm 243 1 10 40 66 71.6 68.9 29.25 68.9 630 2953 1437 -2.67 0.00 0.00 0.000
9:06pm 289 2 6 40 66 71.6 68.9 29.25 68.9 630 2953 1437 -2.62 0.00 0.00 0.000
9:07pm 263 3 6 40 66 71.6 68.8 29.25 68.8 628 2952 1429 -2.68 0.00 0.00 0.000
9:08pm 143 7 7 40 66 71.6 68.8 29.25 68.8 628 2952 1429 -2.64 0.00 0.00 0.000
9:09pm 158 5 9 40 66 71.6 68.8 29.25 68.8 626 2952 1426 -2.59 0.00 0.00 0.000
9:10pm 253 4 9 40 67 71.6 68.8 29.25 68.8 625 2848 1425 -2.55 0.00 0.00 0.000
9:11pm 213 3 6 40 67 71.6 68.8 29.25 68.8 625 2848 1425 -2.51 0.00 0.00 0.000
9:12pm 195 2 8 40 67 71.6 68.7 29.25 68.7 623 2847 1417 -2.57 0.00 0.00 0.000
9:13pm 195 2 8 40 67 71.6 68.7 29.25 68.7 623 2847 1417 -2.53 0.00 0.00 0.000
9:14pm 195 2 8 40 67 71.6 68.7 29.25 68.7 621 2847 1414 -2.48 0.00 0.00 0.000
9:15pm 195 1 8 40 67 71.6 68.7 29.26 68.7 621 2847 1413 -2.44 0.00 0.00 0.000
9:16pm 195 1 2 40 67 71.8 68.7 29.26 68.7 620 2847 1412 -2.40 0.00 0.00 0.000
9:17pm 195 2 2 40 67 71.8 68.6 29.26 68.6 619 2846 1405 -2.46 0.00 0.00 0.000
9:18pm 185 0 4 40 67 71.8 68.5 29.26 68.5 620 2844 1399 -2.52 0.00 0.00 0.000
9:19pm 185 3 4 41 67 71.8 68.5 29.26 68.5 620 2844 1399 -2.48 0.00 0.00 0.000
9:20pm 197 2 4 40 67 71.8 68.4 29.26 68.4 619 2843 1392 -2.54 0.00 0.00 0.000
9:21pm 265 2 5 40 67 71.8 68.3 29.26 68.3 619 2842 1385 -2.59 0.00 0.00 0.000
9:22pm 213 4 5 40 68 71.8 68.3 29.26 68.3 619 2739 1385 -2.55 0.00 0.00 0.000
9:23pm 212 3 5 40 68 71.8 68.3 29.26 68.3 618 2739 1384 -2.51 0.00 0.00 0.000
9:24pm 156 6 10 40 68 71.8 68.2 29.26 68.2 618 2738 1378 -2.57 0.00 0.00 0.000
9:25pm 180 3 10 40 68 71.8 68.2 29.26 68.2 618 2738 1378 -2.53 0.00 0.00 0.000
9:26pm 181 2 3 40 68 71.8 68.2 29.26 68.2 618 2738 1378 -2.48 0.00 0.00 0.000
9:27pm 181 2 3 40 68 71.8 68.2 29.26 68.2 618 2738 1378 -2.44 0.00 0.00 0.000
9:28pm 235 4 4 40 68 71.8 68.2 29.26 68.2 618 2738 1378 -2.40 0.00 0.00 0.000
9:29pm 185 1 4 40 68 71.8 68.1 29.26 68.1 618 2737 1371 -2.46 0.00 0.00 0.000
9:30pm 185 4 4 40 68 71.9 68.1 29.26 68.1 618 2737 1371 -2.42 0.00 0.00 0.000
9:31pm 173 6 7 40 68 71.9 68.1 29.26 68.1 618 2737 1371 -2.38 0.00 0.00 0.000
9:32pm 197 8 10 40 68 71.9 68.1 29.26 68.1 618 2737 1371 -2.34 0.00 0.00 0.000
9:33pm 181 3 10 40 68 71.9 68.2 29.26 68.2 618 2738 1378 -2.20 0.00 0.00 0.000
9:34pm 162 2 10 40 68 71.9 68.1 29.26 68.1 617 2737 1370 -2.27 0.00 0.00 0.000
9:35pm 208 2 10 40 68 71.9 68.2 29.26 68.2 617 2738 1377 -2.13 0.00 0.00 0.000
9:36pm 208 2 2 40 68 71.9 68.2 29.26 68.2 617 2738 1377 -2.09 0.00 0.00 0.000
9:37pm 187 4 7 40 68 71.9 68.2 29.26 68.2 617 2738 1377 -2.06 0.00 0.00 0.000
9:38pm 141 2 7 40 68 71.9 68.1 29.26 68.1 617 2737 1370 -2.13 0.00 0.00 0.000
9:39pm 154 3 7 40 68 71.9 68.1 29.26 68.1 617 2737 1370 -2.09 0.00 0.00 0.000
9:40pm 182 4 7 40 68 71.9 68.1 29.26 68.1 616 2737 1369 -2.05 0.00 0.00 0.000
9:41pm 231 10 10 40 68 71.8 68.1 29.26 68.1 616 2737 1369 -2.02 0.00 0.00 0.000
9:42pm 202 5 10 40 68 71.8 68.1 29.26 68.1 616 2737 1369 -1.99 0.00 0.00 0.000
9:43pm 206 1 10 40 68 71.8 68.2 29.26 68.2 616 2738 1376 -1.85 0.00 0.00 0.000
9:44pm 167 1 10 40 68 71.8 68.2 29.26 68.2 616 2738 1376 -1.82 0.00 0.00 0.000
9:45pm 226 2 10 40 68 71.8 68.2 29.26 68.2 615 2738 1374 -1.79 0.00 0.00 0.000
9:46pm 229 5 7 40 68 71.8 68.2 29.26 68.2 616 2738 1376 -1.76 0.00 0.00 0.000
9:47pm 213 2 7 40 68 71.8 68.2 29.26 68.2 615 2738 1374 -1.73 0.00 0.00 0.000
9:48pm 206 2 7 40 68 71.6 68.2 29.26 68.2 615 2738 1374 -1.71 0.00 0.00 0.000
9:49pm 140 5 7 40 68 71.6 68.2 29.26 68.2 614 2738 1373 -1.68 0.00 0.00 0.000
9:50pm 267 2 7 40 68 71.6 68.1 29.26 68.1 614 2737 1367 -1.75 0.00 0.00 0.000
9:51pm 185 7 7 40 68 71.6 68.1 29.26 68.1 613 2737 1366 -1.72 0.00 0.00 0.000
9:52pm 231 3 7 40 68 71.6 68.0 29.26 68.0 613 2736 1359 -1.79 0.00 0.00 0.000
9:53pm 258 1 7 40 68 71.6 68.0 29.26 68.0 613 2736 1359 -1.76 0.00 0.00 0.000
9:54pm 226 2 7 40 68 71.6 68.1 29.26 68.1 612 2737 1365 -1.63 0.00 0.00 0.000
9:55pm 203 4 9 40 68 71.6 68.0 29.26 68.0 611 2736 1357 -1.70 0.00 0.00 0.000
9:56pm 253 2 6 40 68 71.6 68.0 29.26 68.0 612 2736 1358 -1.68 0.00 0.00 0.000
9:57pm 208 4 8 40 68 71.6 68.0 29.26 68.0 611 2736 1357 -1.65 0.00 0.00 0.000
9:58pm 248 3 8 40 68 71.6 68.0 29.26 68.0 611 2736 1357 -1.62 0.00 0.00 0.000
9:59pm 237 2 8 40 68 71.6 67.9 29.27 67.9 609 2735 1348 -1.69 0.00 0.00 0.000
10:00pm 300 2 8 40 68 71.6 68.0 29.27 68.0 609 2736 1355 -1.56 0.00 0.00 0.000
10:01pm 181 1 4 40 68 71.6 67.9 29.27 67.9 609 2735 1347 -1.64 0.00 0.00 0.000
10:02pm 174 6 9 40 68 71.6 67.9 29.27 67.9 609 2735 1347 -1.61 0.00 0.00 0.000
10:03pm 164 1 9 40 68 71.6 67.9 29.27 67.9 609 2735 1347 -1.58 0.00 0.00 0.000
10:04pm 164 1 9 40 68 71.6 67.9 29.27 67.9 609 2735 1347 -1.56 0.00 0.00 0.000
10:05pm 164 1 9 40 68 71.6 67.9 29.27 67.9 608 2735 1346 -1.53 0.00 0.00 0.000
10:06pm 233 3 4 40 68 71.6 67.9 29.27 67.9 608 2735 1346 -1.51 0.00 0.00 0.000
10:07pm 172 4 6 40 68 71.6 67.8 29.27 67.8 608 2733 1340 -1.58 0.00 0.00 0.000
10:08pm 205 3 7 40 68 71.6 67.8 29.27 67.8 610 2733 1343 -1.56 0.00 0.00 0.000
10:09pm 210 2 7 40 68 71.6 67.7 29.27 67.7 610 2732 1337 -1.63 0.00 0.00 0.000
10:10pm 195 1 7 40 68 71.6 67.7 29.26 67.7 612 2732 1339 -1.60 0.00 0.00 0.000
10:11pm 195 3 3 40 68 71.6 67.7 29.26 67.7 612 2732 1339 -1.58 0.00 0.00 0.000
10:12pm 193 1 4 40 68 71.6 67.7 29.26 67.7 612 2732 1339 -1.55 0.00 0.00 0.000
10:13pm 169 4 4 40 68 71.6 67.7 29.26 67.7 611 2732 1338 -1.52 0.00 0.00 0.000
10:14pm 200 2 8 40 68 71.6 67.6 29.26 67.6 611 2731 1331 -1.60 0.00 0.00 0.000
10:15pm 193 4 8 40 68 71.6 67.7 29.26 67.7 613 2732 1340 -1.47 0.00 0.00 0.000
10:16pm 162 1 5 40 67 71.6 67.7 29.26 67.7 611 2835 1338 -1.45 0.00 0.00 0.000
10:17pm 162 2 5 40 68 71.6 67.7 29.27 67.7 609 2732 1336 -1.42 0.00 0.00 0.000
10:18pm 162 2 5 40 68 71.6 67.7 29.27 67.7 610 2732 1337 -1.40 0.00 0.00 0.000
10:19pm 168 2 6 40 68 71.6 67.7 29.27 67.7 609 2732 1334 -1.38 0.00 0.00 0.000
10:20pm 170 3 8 40 67 71.8 67.7 29.27 67.7 609 2835 1336 -1.35 0.00 0.00 0.000
10:21pm 170 1 3 40 67 71.8 67.7 29.27 67.7 610 2835 1337 -1.33 0.00 0.00 0.000
10:22pm 170 2 3 40 68 71.8 67.7 29.26 67.7 612 2732 1339 -1.31 0.00 0.00 0.000
10:23pm 168 2 3 40 68 71.8 67.7 29.26 67.7 613 2732 1340 -1.29 0.00 0.00 0.000
10:24pm 205 2 6 40 68 71.8 67.7 29.26 67.7 613 2732 1340 -1.27 0.00 0.00 0.000
10:25pm 181 3 7 40 68 71.8 67.7 29.26 67.7 612 2732 1339 -1.25 0.00 0.00 0.000
10:26pm 201 4 5 40 68 71.8 67.7 29.26 67.7 613 2732 1340 -1.23 0.00 0.00 0.000
10:27pm 198 2 5 40 68 71.8 67.7 29.26 67.7 614 2732 1341 -1.20 0.00 0.00 0.000
10:28pm 237 2 8 40 68 71.8 67.7 29.26 67.7 615 2732 1342 -1.18 0.00 0.00 0.000
10:29pm 181 5 8 40 68 71.8 67.6 29.26 67.6 614 2731 1335 -1.26 0.00 0.00 0.000
10:30pm 179 1 8 40 68 71.8 67.6 29.26 67.6 614 2731 1335 -1.24 0.00 0.00 0.000
10:31pm 208 7 8 40 68 71.6 67.6 29.26 67.6 615 2731 1336 -1.22 0.00 0.00 0.000
10:32pm 195 0 8 40 68 71.6 67.6 29.26 67.6 613 2731 1334 -1.20 0.00 0.00 0.000
10:33pm 195 1 8 40 68 71.6 67.6 29.26 67.6 613 2731 1334 -1.18 0.00 0.00 0.000
10:34pm 195 3 8 40 68 71.6 67.6 29.26 67.6 612 2731 1332 -1.16 0.00 0.00 0.000
10:35pm 222 1 8 40 68 71.6 67.4 29.26 67.4 612 2729 1320 -1.34 0.00 0.00 0.000
10:36pm 168 3 6 40 69 71.6 67.4 29.26 67.4 611 2628 1319 -1.32 0.00 0.00 0.000
10:37pm 168 2 6 40 68 71.6 67.4 29.26 67.4 612 2729 1320 -1.30 0.00 0.00 0.000
10:38pm 199 3 6 40 68 71.6 67.3 29.26 67.3 613 2728 1314 -1.37 0.00 0.00 0.000
10:39pm 184 4 6 40 68 71.4 67.3 29.26 67.3 614 2728 1316 -1.35 0.00 0.00 0.000
10:40pm 185 2 6 40 68 71.4 67.3 29.26 67.3 613 2728 1314 -1.33 0.00 0.00 0.000
10:41pm 262 8 8 40 68 71.4 67.2 29.26 67.2 614 2727 1309 -1.41 0.00 0.00 0.000
10:42pm 180 5 8 40 68 71.4 67.2 29.26 67.2 614 2727 1309 -1.38 0.00 0.00 0.000
10:43pm 145 1 8 40 68 71.4 67.2 29.26 67.2 615 2727 1310 -1.36 0.00 0.00 0.000
10:44pm 222 3 8 40 68 71.4 67.2 29.26 67.2 615 2727 1310 -1.34 0.00 0.00 0.000
10:45pm 220 1 8 40 68 71.4 67.2 29.26 67.2 616 2727 1311 -1.32 0.00 0.00 0.000
10:46pm 177 2 6 40 68 71.2 67.2 29.26 67.2 617 2727 1312 -1.30 0.00 0.00 0.000
10:47pm 183 3 6 40 68 71.2 67.2 29.26 67.2 616 2727 1311 -1.27 0.00 0.00 0.000
10:48pm 171 3 6 40 68 71.2 67.2 29.26 67.2 616 2727 1311 -1.25 0.00 0.00 0.000
10:49pm 187 1 6 40 68 71.2 67.1 29.26 67.1 617 2725 1306 -1.33 0.00 0.00 0.000
10:50pm 186 1 6 40 68 71.2 67.1 29.26 67.1 617 2725 1306 -1.31 0.00 0.00 0.000
10:51pm 185 2 2 40 68 71.2 67.1 29.26 67.1 617 2725 1306 -1.29 0.00 0.00 0.000
10:52pm 152 2 4 40 69 71.2 67.0 29.26 67.0 617 2623 1300 -1.36 0.00 0.00 0.000
10:53pm 162 5 5 40 69 71.1 67.0 29.26 67.0 617 2623 1300 -1.34 0.00 0.00 0.000
10:54pm 190 7 7 40 68 71.1 66.9 29.26 66.9 617 2723 1293 -1.42 0.00 0.00 0.000
10:55pm 168 5 7 40 68 71.1 66.9 29.26 66.9 617 2723 1293 -1.40 0.00 0.00 0.000
10:56pm 168 3 6 40 69 71.1 66.9 29.26 66.9 618 2622 1294 -1.38 0.00 0.00 0.000
10:57pm 193 3 6 39 68 71.1 66.9 29.26 66.9 617 2723 1293 -1.35 0.00 0.00 0.000
10:58pm 183 3 8 40 68 71.1 66.9 29.26 66.9 618 2723 1294 -1.33 0.00 0.00 0.000
10:59pm 183 2 8 40 68 71.1 66.9 29.26 66.9 618 2723 1294 -1.31 0.00 0.00 0.000
11:00pm 183 2 8 40 69 71.1 67.0 29.26 67.0 617 2623 1300 -1.19 0.00 0.00 0.000
11:01pm 184 2 4 40 69 71.1 66.9 29.26 66.9 617 2622 1293 -1.27 0.00 0.00 0.000
11:02pm 184 1 4 40 68 71.1 66.9 29.26 66.9 618 2723 1294 -1.25 0.00 0.00 0.000
11:03pm 165 1 6 40 68 71.1 66.8 29.26 66.8 617 2722 1287 -1.33 0.00 0.00 0.000
11:04pm 231 2 6 40 69 71.1 66.8 29.26 66.8 617 2621 1287 -1.30 0.00 0.00 0.000
11:05pm 233 1 6 40 68 71.1 66.8 29.26 66.8 617 2722 1287 -1.28 0.00 0.00 0.000
11:06pm 139 4 5 40 68 71.1 66.9 29.26 66.9 617 2723 1293 -1.16 0.00 0.00 0.000
11:07pm 212 7 9 40 68 71.1 66.8 29.26 66.8 618 2722 1288 -1.24 0.00 0.00 0.000
11:08pm 227 3 9 40 68 71.1 66.9 29.26 66.9 618 2723 1294 -1.12 0.00 0.00 0.000
11:09pm 179 9 9 40 68 71.1 66.9 29.26 66.9 618 2723 1294 -1.10 0.00 0.00 0.000
11:10pm 226 5 9 40 68 71.1 67.0 29.26 67.0 617 2724 1300 -0.98 0.00 0.00 0.000
11:11pm 322 2 5 40 68 71.1 67.1 29.26 67.1 618 2725 1307 -0.87 0.00 0.00 0.000
11:12pm 197 6 6 39 68 71.1 67.1 29.26 67.1 618 2725 1307 -0.86 0.00 0.00 0.000
11:13pm 206 4 6 40 68 71.1 67.1 29.26 67.1 618 2725 1307 -0.84 0.00 0.00 0.000
11:14pm 216 3 6 40 68 71.1 67.1 29.26 67.1 618 2725 1307 -0.83 0.00 0.00 0.000
11:15pm 195 4 6 40 68 71.1 67.1 29.26 67.1 618 2725 1307 -0.81 0.00 0.00 0.000
11:16pm 259 3 6 40 68 71.2 67.2 29.26 67.2 618 2727 1314 -0.70 0.00 0.00 0.000
11:17pm 177 4 7 40 68 71.2 67.2 29.26 67.2 618 2727 1314 -0.69 0.00 0.00 0.000
11:18pm 189 3 8 39 68 71.2 67.2 29.26 67.2 618 2727 1314 -0.68 0.00 0.00 0.000
11:19pm 189 2 8 40 68 71.2 67.2 29.26 67.2 618 2727 1314 -0.67 0.00 0.00 0.000
11:20pm 201 7 8 40 68 71.2 67.2 29.26 67.2 617 2727 1312 -0.66 0.00 0.00 0.000
11:21pm 98 2 7 39 68 71.2 67.2 29.26 67.2 617 2727 1312 -0.65 0.00 0.00 0.000
11:22pm 206 6 7 40 68 71.1 67.2 29.26 67.2 617 2727 1312 -0.64 0.00 0.00 0.000
11:23pm 176 5 9 40 68 71.1 67.2 29.26 67.2 617 2727 1312 -0.62 0.00 0.00 0.000
11:24pm 214 2 9 40 68 71.1 67.2 29.26 67.2 617 2727 1312 -0.61 0.00 0.00 0.000
11:25pm 169 4 9 39 68 71.1 67.2 29.26 67.2 617 2727 1312 -0.60 0.00 0.00 0.000
11:26pm 300 7 7 39 68 71.1 67.2 29.26 67.2 617 2727 1312 -0.59 0.00 0.00 0.000
11:27pm 187 2 7 39 68 71.1 67.3 29.26 67.3 617 2728 1319 -0.49 0.00 0.00 0.000
11:28pm 154 1 7 40 68 71.1 67.3 29.26 67.3 617 2728 1319 -0.48 0.00 0.00 0.000
11:29pm 145 4 7 40 68 71.1 67.2 29.26 67.2 617 2727 1312 -0.57 0.00 0.00 0.000
11:30pm 207 5 8 39 68 71.1 67.2 29.26 67.2 616 2727 1311 -0.56 0.00 0.00 0.000
11:31pm 218 3 5 40 68 71.1 67.2 29.26 67.2 617 2727 1312 -0.55 0.00 0.00 0.000
11:32pm 156 1 5 39 68 70.9 67.2 29.26 67.2 617 2727 1312 -0.54 0.00 0.00 0.000
11:33pm 192 3 5 40 69 70.9 67.1 29.26 67.1 618 2625 1307 -0.63 0.00 0.00 0.000
11:34pm 208 1 5 40 68 70.9 67.1 29.26 67.1 618 2725 1307 -0.62 0.00 0.00 0.000
11:35pm 208 1 5 40 69 70.9 67.1 29.26 67.1 617 2625 1306 -0.61 0.00 0.00 0.000
11:36pm 241 3 5 41 69 70.9 67.1 29.26 67.1 617 2625 1306 -0.60 0.00 0.00 0.000
11:37pm 203 2 5 40 69 70.9 67.0 29.26 67.0 618 2623 1301 -0.69 0.00 0.00 0.000
11:38pm 175 2 7 40 69 70.9 67.0 29.26 67.0 617 2623 1300 -0.68 0.00 0.00 0.000
11:39pm 220 3 7 40 69 70.9 67.0 29.26 67.0 617 2623 1300 -0.67 0.00 0.00 0.000
11:40pm 243 4 7 40 69 70.9 67.0 29.26 67.0 616 2623 1298 -0.66 0.00 0.00 0.000
11:41pm 214 3 4 40 69 70.9 66.9 29.26 66.9 616 2622 1292 -0.75 0.00 0.00 0.000
11:42pm 154 5 7 40 69 70.9 66.9 29.26 66.9 615 2622 1291 -0.73 0.00 0.00 0.000
11:43pm 151 7 7 39 69 70.9 66.9 29.26 66.9 615 2622 1291 -0.72 0.00 0.00 0.000
11:44pm 206 3 8 40 69 70.9 66.8 29.26 66.8 615 2621 1285 -0.81 0.00 0.00 0.000
11:45pm 192 3 8 40 69 71.1 66.9 29.26 66.9 616 2622 1292 -0.70 0.00 0.00 0.000
11:46pm 196 4 5 40 69 71.1 67.0 29.26 67.0 616 2623 1298 -0.59 0.00 0.00 0.000
11:47pm 157 6 7 40 69 71.1 67.0 29.26 67.0 617 2623 1300 -0.58 0.00 0.00 0.000
11:48pm 183 2 7 40 69 71.1 67.0 29.26 67.0 615 2623 1297 -0.57 0.00 0.00 0.000
11:49pm 183 2 7 40 69 71.1 67.0 29.26 67.0 616 2623 1298 -0.56 0.00 0.00 0.000
11:50pm 183 1 7 40 69 71.1 67.0 29.26 67.0 615 2623 1297 -0.55 0.00 0.00 0.000
11:51pm 169 2 3 40 69 71.1 67.0 29.26 67.0 615 2623 1297 -0.54 0.00 0.00 0.000
11:52pm 169 0 3 40 69 71.1 66.9 29.26 66.9 615 2622 1291 -0.63 0.00 0.00 0.000
11:53pm 169 2 4 40 70 71.1 66.9 29.26 66.9 615 2523 1291 -0.62 0.00 0.00 0.000
11:54pm 231 4 4 40 70 71.1 66.8 29.26 66.8 616 2522 1286 -0.71 0.00 0.00 0.000
11:55pm 202 6 7 40 70 71.1 66.7 29.26 66.7 616 2521 1279 -0.79 0.00 0.00 0.000
11:56pm 189 7 8 39 70 71.1 66.8 29.26 66.8 615 2522 1285 -0.68 0.00 0.00 0.000
11:57pm 189 5 10 40 70 71.1 66.7 29.26 66.7 616 2521 1279 -0.77 0.00 0.00 0.000
11:58pm 167 4 10 40 70 71.1 66.8 29.26 66.8 615 2522 1285 -0.66 0.00 0.00 0.000
11:59pm 240 1 10 40 70 71.1 66.8 29.26 66.8 615 2522 1285 -0.65 0.00 0.00 0.000
|
Data provided from: Mark Hofmann's Bel Air, MD Weather Station |